W4HSV Weather Reports


time (UTC)temp
C
wind
direction
speed
KPH
gust
KPH
rain 1hr
cm
rain 24hr
cm
rain mn
cm
humidity
%
barometer
mb
20260507082214 12 320 11.3 20.9 0.61 6.48 0.61 95 1012.5
20260507082123 12 24 11.3 20.9 0.58 6.45 0.58 95 1012.5
20260507082057 12 22 12.9 20.9 0.58 6.45 0.58 95 1012.4
20260507081811 12 345 14.5 20.9 0.56 6.43 0.56 95 1012.3
20260507081718 12 355 14.5 20.9 0.53 6.40 0.53 95 1012.3
20260507081625 12 305 12.9 20.9 0.51 6.38 0.51 95 1012.3
20260507081517 12 327 11.3 17.7 0.51 6.38 0.51 95 1012.3
20260507081444 12 337 9.7 17.7 0.48 6.35 0.48 95 1012.3
20260507081328 12 342 9.7 17.7 0.46 6.32 0.46 95 1011.9
20260507081214 12 11 9.7 17.7 0.41 6.27 0.41 95 1011.7
20260507081120 12 5 9.7 17.7 0.38 6.25 0.38 95 1011.7
20260507081028 12 324 8.0 19.3 0.36 6.22 0.36 95 1012.1
20260507080915 12 349 8.0 19.3 0.28 6.15 0.28 95 1012.4
20260507080827 12 319 8.0 19.3 0.25 6.12 0.25 95 1012.4
20260507080715 12 336 9.7 19.3 0.23 6.10 0.23 95 1012.5
20260507080621 12 348 9.7 19.3 0.23 6.10 0.23 95 1012.5
20260507080551 12 342 8.0 19.3 0.20 6.07 0.20 95 1012.5
20260507080325 12 5 9.7 19.3 0.18 6.05 0.18 95 1012.2
20260507080217 12 355 12.9 19.3 0.18 6.05 0.18 95 1011.8
20260507080125 12 5 14.5 19.3 0.15 6.02 0.15 95 1011.8
20260507080012 12 22 14.5 20.9 0.15 6.02 0.15 95 1011.2
20260507075920 12 15 12.9 20.9 0.13 5.99 0.13 95 1011.2
20260507075826 12 5 12.9 20.9 0.13 5.99 0.13 95 1011.1
20260507075737 12 5 11.3 20.9 0.13 5.99 0.13 95 1011.0
20260507075644 12 5 11.3 20.9 0.13 5.99 0.13 95 1011.0
20260507075530 12 32 11.3 20.9 0.13 5.99 0.13 95 1010.8
20260507075417 12 355 9.7 20.9 0.13 5.99 0.13 95 1010.7
20260507075345 12 28 9.7 20.9 0.13 5.99 0.13 95 1010.7
20260507075232 12 63 11.3 20.9 0.13 5.99 0.13 95 1010.7
20260507075139 12 355 12.9 20.9 0.13 5.99 0.13 95 1010.7
20260507075115 12 30 11.3 22.5 0.13 5.99 0.13 95 1010.7
20260507074827 12 45 9.7 22.5 0.13 5.99 0.13 95 1010.6
20260507074715 12 12 9.7 22.5 0.13 5.99 0.13 95 1010.8
20260507074622 12 23 9.7 22.5 0.13 5.99 0.13 95 1010.8
20260507074530 12 19 9.7 22.5 0.13 5.99 0.13 95 1010.8
20260507074420 12 5 9.7 22.5 0.13 5.99 0.13 95 1010.9
20260507074327 12 42 11.3 22.5 0.13 5.99 0.13 95 1010.9
20260507074214 12 355 14.5 22.5 0.13 5.99 0.13 95 1011.1
20260507074123 12 22 14.5 22.5 0.13 5.99 0.13 95 1011.1
20260507074010 12 42 11.3 22.5 0.13 5.99 0.13 95 1011.0
20260507073921 12 5 11.3 22.5 0.10 5.97 0.10 95 1011.0
20260507073848 12 23 14.5 22.5 0.10 5.97 0.10 95 1011.1
20260507073715 12 33 16.1 22.5 0.10 5.97 0.10 95 1011.2
20260507073643 12 26 16.1 22.5 0.10 5.97 0.10 95 1011.2
20260507073613 12 5 14.5 22.5 0.10 5.97 0.10 95 1011.2
20260507073345 12 360 12.9 22.5 0.10 5.97 0.10 95 1011.4
20260507073214 12 344 12.9 22.5 0.10 5.97 0.10 95 1011.7
20260507073120 12 24 12.9 22.5 0.10 5.97 0.10 95 1011.7
20260507073027 12 34 14.5 22.5 0.10 5.97 0.10 95 1011.6
20260507072913 12 18 16.1 22.5 0.08 5.94 0.08 95 1011.7
20260507072820 12 15 16.1 22.5 0.05 5.92 0.05 95 1011.7
20260507072728 12 14 16.1 22.5 0.05 5.92 0.05 95 1011.8
20260507072619 12 39 16.1 22.5 0.03 5.89 0.03 95 1012.0
20260507072527 12 5 14.5 22.5 0.00 5.87 0.00 95 1012.5
20260507072413 12 360 12.9 22.5 0.00 5.87 0.00 95 1013.3
20260507072320 12 345 14.5 22.5 0.00 5.87 0.00 95 1013.3
20260507072227 12 307 16.1 22.5 0.00 5.87 0.00 95 1013.4
20260507072136 12 311 14.5 22.5 0.00 5.87 0.00 95 1013.3
20260507072110 12 327 11.3 22.5 0.00 5.87 0.00 95 1013.7
20260507071844 12 16 11.3 22.5 0.00 5.87 0.00 95 1012.3
20260507071729 12 5 14.5 22.5 0.00 5.87 0.00 95 1012.1
20260507071618 12 27 14.5 24.1 0.00 5.87 0.00 95 1011.6
20260507071526 12 11 14.5 24.1 0.00 5.87 0.00 95 1011.6
20260507071417 12 360 14.5 24.1 0.00 5.87 0.00 95 1011.4
20260507071323 12 57 14.5 24.1 0.00 5.87 0.00 95 1011.4
20260507071211 12 15 14.5 24.1 0.00 5.87 0.00 95 1011.3
20260507071117 12 25 14.5 24.1 0.00 5.87 0.00 95 1011.2
20260507071024 12 35 12.9 24.1 0.00 5.87 0.00 95 1011.2
20260507070915 12 42 16.1 24.1 0.00 5.87 0.00 95 1011.2
20260507070822 12 9 16.1 24.1 0.00 5.87 0.00 95 1011.2
20260507070729 12 42 12.9 22.5 0.00 5.87 0.00 95 1011.2
20260507070637 12 45 11.3 22.5 0.00 5.87 0.00 95 1011.3
20260507070547 12 67 12.9 22.5 0.00 5.87 0.00 95 1011.3
20260507070323 12 31 14.5 22.5 0.00 5.87 0.00 95 1011.3
20260507070231 12 14 16.1 22.5 0.00 5.87 0.00 95 1011.3
20260507070116 12 29 12.9 20.9 0.00 5.87 0.00 95 1011.6
20260507070022 12 5 12.9 20.9 0.00 5.87 0.00 95 1011.6
20260507065930 12 360 12.9 20.9 0.00 5.87 0.00 95 1011.6
20260507065816 12 355 9.7 20.9 0.00 5.87 0.00 95 1011.7
20260507065743 12 355 8.0 20.9 0.00 5.87 0.00 95 1011.7
20260507065613 12 17 9.7 20.9 0.00 5.87 0.00 95 1011.7
20260507065521 12 20 11.3 24.1 0.00 5.87 0.00 95 1011.7
20260507065449 12 5 12.9 24.1 0.00 5.87 0.00 95 1011.9
20260507065317 12 39 14.5 24.1 0.00 5.87 0.00 95 1011.9
20260507065223 12 349 12.9 24.1 0.00 5.87 0.00 95 1011.9
20260507065131 12 10 12.9 24.1 0.00 5.87 0.00 95 1012.0
20260507065104 12 32 12.9 24.1 0.00 5.87 0.00 95 1012.0
20260507064817 12 17 14.5 24.1 0.00 5.87 0.00 95 1012.2
20260507064745 12 355 14.5 24.1 0.00 5.87 0.00 95 1012.2
20260507064610 12 5 12.9 22.5 0.00 5.87 0.00 95 1012.2
20260507064517 12 13 12.9 22.5 0.00 5.87 0.00 95 1012.2
20260507064429 12 355 12.9 22.5 0.00 5.87 0.00 95 1012.2
20260507064317 12 16 11.3 22.5 0.00 5.87 0.00 95 1012.1
20260507064242 12 355 12.9 19.3 0.00 5.87 0.00 95 1012.1
20260507064130 12 355 12.9 19.3 0.00 5.87 0.00 95 1012.2
20260507064016 12 45 11.3 22.5 0.00 5.87 0.00 95 1012.2
20260507063925 12 355 9.7 24.1 0.00 5.87 0.00 95 1012.2
20260507063837 12 360 9.7 24.1 0.00 5.87 0.00 95 1012.3
20260507063723 12 355 9.7 24.1 0.00 5.87 0.00 95 1012.3
20260507063651 12 350 11.3 24.1 0.00 5.87 0.00 95 1012.2
20260507063601 12 5 12.9 24.1 0.00 5.87 0.00 95 1012.2
20260507063334 12 5 14.5 24.1 0.00 5.87 0.00 95 1012.1
20260507063225 12 32 16.1 24.1 0.00 5.87 0.00 95 1012.1
20260507063112 12 24 16.1 24.1 0.00 5.87 0.00 95 1011.8
20260507063039 12 346 11.3 20.9 0.00 5.87 0.00 95 1011.7
20260507062925 12 360 11.3 20.9 0.00 5.87 0.00 95 1011.7
20260507062813 12 346 14.5 24.1 0.00 5.87 0.00 95 1011.3
20260507062721 12 34 12.9 24.1 0.00 5.87 0.00 95 1011.3
20260507062611 12 14 11.3 24.1 0.00 5.87 0.00 96 1011.2
20260507062518 12 355 11.3 24.1 0.00 5.87 0.00 96 1011.3
20260507062427 12 9 12.9 24.1 0.00 5.87 0.00 96 1011.3
20260507062315 12 15 12.9 24.1 0.00 5.87 0.00 96 1011.5
20260507062242 12 355 12.9 24.1 0.00 5.87 0.00 96 1011.5
20260507062149 12 24 12.9 24.1 0.00 5.87 0.00 96 1011.5
20260507062123 12 5 12.9 24.1 0.00 5.87 0.00 96 1011.6
20260507061835 12 16 12.9 24.1 0.00 5.87 0.00 96 1011.9
20260507061741 12 355 12.9 24.1 0.00 5.87 0.00 96 1011.9
20260507061629 12 20 14.5 24.1 0.00 5.87 0.00 96 1012.0
20260507061515 12 28 12.9 24.1 0.00 5.87 0.00 96 1012.2
20260507061423 12 5 11.3 22.5 0.00 5.87 0.00 96 1012.2
20260507061313 12 355 11.3 22.5 0.00 5.87 0.00 96 1012.2
20260507061221 12 43 12.9 22.5 0.00 5.87 0.00 96 1012.2
20260507061128 12 22 12.9 19.3 0.00 5.87 0.00 96 1012.2
20260507061015 12 42 9.7 19.3 0.00 5.87 0.00 96 1012.2
20260507060942 12 360 8.0 16.1 0.00 5.87 0.00 96 1012.2
20260507060849 12 11 8.0 16.1 0.00 5.87 0.00 96 1012.2
20260507060719 12 11 9.7 16.1 0.00 5.87 0.00 96 1012.2
20260507060626 12 348 9.7 19.3 0.00 5.87 0.00 96 1012.3
20260507060558 13 22 8.0 19.3 0.00 5.87 0.00 96 1012.4
20260507060311 13 355 9.7 19.3 0.00 5.87 0.00 96 1012.3
20260507060222 13 5 9.7 19.3 0.00 5.87 0.00 96 1012.3
20260507060126 13 5 8.0 19.3 0.00 5.87 0.00 96 1012.4
20260507060014 13 21 8.0 19.3 0.00 5.87 0.00 96 1012.5
20260507055942 13 340 11.3 19.3 0.00 5.87 0.00 96 1012.5
20260507055829 13 19 11.3 19.3 0.00 5.87 0.00 96 1012.6
20260507055715 13 9 12.9 19.3 0.00 5.87 0.00 96 1012.5
20260507055622 13 5 12.9 19.3 0.00 5.87 0.00 96 1012.5
20260507055513 13 11 9.7 19.3 0.00 5.87 0.00 96 1012.5
20260507055421 13 348 11.3 19.3 0.00 5.87 0.00 96 1012.5
20260507055329 13 22 11.3 19.3 0.00 5.87 0.00 96 1012.5
20260507055217 13 355 6.4 17.7 0.00 5.87 0.00 96 1012.6
20260507055124 13 355 6.4 16.1 0.00 5.87 0.00 96 1012.6
20260507055058 13 34 6.4 16.1 0.00 5.87 0.00 96 1012.7
20260507054832 13 17 6.4 16.1 0.00 5.87 0.00 96 1012.5
20260507054719 13 348 6.4 16.1 0.00 5.87 0.00 96 1012.5
20260507054626 13 345 8.0 16.1 0.00 5.87 0.00 96 1012.4
20260507054515 13 13 8.0 19.3 0.00 5.87 0.00 96 1012.7
20260507054426 13 9 9.7 19.3 0.00 5.87 0.00 96 1012.7
20260507054314 13 350 9.7 19.3 0.00 5.87 5.87 96 1012.7
20260507054243 13 355 8.0 19.3 0.00 5.87 5.87 96 1012.7
20260507054129 13 18 6.4 19.3 0.00 5.87 5.87 96 1012.7
20260507054017 13 345 4.8 19.3 0.00 5.87 5.87 96 1012.6
20260507053945 13 11 6.4 19.3 0.00 5.87 5.87 96 1012.6
20260507053817 13 16 9.7 19.3 0.00 5.87 5.87 96 1012.7
20260507053724 13 348 11.3 19.3 0.00 5.87 5.87 96 1012.7
20260507053632 13 30 9.7 19.3 0.00 5.87 5.87 96 1012.6
20260507053605 13 348 8.0 17.7 0.00 5.87 5.87 96 1012.5
20260507053322 13 25 9.7 17.7 0.00 5.87 5.87 96 1012.3
20260507053229 13 330 9.7 17.7 0.00 5.87 5.87 96 1012.3
20260507053136 13 9 8.0 17.7 0.00 5.87 5.87 96 1012.1
20260507053041 13 15 8.0 17.7 0.00 5.87 5.87 96 1012.1
20260507052928 13 355 8.0 17.7 0.00 5.87 5.87 96 1012.1
20260507052815 13 37 11.3 17.7 0.00 5.87 5.87 96 1012.1
20260507052723 13 34 11.3 17.7 0.00 5.87 5.87 96 1012.1
20260507052616 13 350 9.7 17.7 0.00 5.87 5.87 96 1012.3
20260507052543 13 9 11.3 17.7 0.00 5.87 5.87 96 1012.3
20260507052429 13 17 11.3 17.7 0.00 5.87 5.87 96 1012.3
20260507052337 13 360 8.0 17.7 0.00 5.87 5.87 96 1012.2
20260507052243 13 33 8.0 17.7 0.00 5.87 5.87 96 1012.2
20260507052129 13 5 8.0 16.1 0.00 5.87 5.87 96 1012.1
20260507052104 13 46 8.0 16.1 0.00 5.87 5.87 96 1012.1
20260507051817 13 19 9.7 16.1 0.00 5.87 5.87 96 1012.2
20260507051725 13 9 9.7 16.1 0.00 5.87 5.87 96 1012.2
20260507051611 13 21 8.0 16.1 0.00 5.87 5.87 96 1012.3
20260507051518 13 35 8.0 16.1 0.00 5.87 5.87 96 1012.3
20260507051429 13 15 8.0 16.1 0.00 5.87 5.87 96 1012.3
20260507051317 13 360 11.3 17.7 0.00 5.87 5.87 96 1012.4
20260507051225 13 31 8.0 17.7 0.00 5.87 5.87 96 1012.4
20260507051113 13 355 6.4 17.7 0.00 5.87 5.87 96 1012.4
20260507051040 13 15 8.0 17.7 0.00 5.87 5.87 96 1012.4
20260507050947 13 355 8.0 17.7 0.00 5.87 5.87 96 1012.4
20260507050818 13 5 9.7 17.7 0.00 5.87 5.87 96 1012.4
20260507050745 13 27 9.7 17.7 0.00 5.87 5.87 96 1012.4
20260507050631 13 360 11.3 17.7 0.00 5.87 5.87 96 1012.5
20260507050602 13 32 11.3 17.7 0.00 5.87 5.87 96 1012.5
20260507050316 13 5 11.3 16.1 0.00 5.87 5.87 96 1012.6
20260507050227 13 360 9.7 14.5 0.00 5.87 5.87 96 1012.6
20260507050114 13 345 8.0 12.9 0.00 5.87 5.87 96 1012.4
20260507050021 13 341 8.0 12.9 0.00 5.87 5.87 96 1012.6
20260507045929 13 323 9.7 12.9 0.00 5.87 5.87 96 1012.6
20260507045817 13 347 8.0 12.9 0.00 5.87 5.87 96 1012.4
20260507045729 13 21 6.4 14.5 0.00 5.87 5.87 96 1012.4
20260507045617 13 9 6.4 16.1 0.00 5.87 5.87 96 1012.3
20260507045525 13 360 6.4 16.1 0.00 5.87 5.87 96 1012.3
20260507045412 13 9 8.0 16.1 0.00 5.87 5.87 96 1012.4
20260507045320 13 5 8.0 16.1 0.00 5.87 5.87 96 1012.5
20260507045212 13 9 8.0 16.1 0.00 5.87 5.87 96 1012.6
20260507045138 13 333 8.0 16.1 0.00 5.87 5.87 96 1012.6
20260507045048 13 10 9.7 16.1 0.00 5.87 5.87 96 1012.6
20260507044822 13 327 9.7 16.1 0.00 5.87 5.87 96 1012.6
20260507044749 13 16 8.0 16.1 0.00 5.87 5.87 96 1012.7
20260507044635 13 360 9.7 16.1 0.00 5.87 5.87 96 1012.4
20260507044526 13 351 9.7 16.1 0.00 5.87 5.87 96 1012.4
20260507044413 13 47 8.0 16.1 0.00 5.87 5.87 96 1012.3
20260507044341 13 5 9.7 19.3 0.00 5.87 5.87 96 1012.3
20260507044248 13 350 9.7 19.3 0.00 5.87 5.87 96 1012.3
20260507044115 13 348 8.0 19.3 0.00 5.87 5.87 96 1012.4
20260507044022 13 349 9.7 19.3 0.00 5.87 5.87 96 1012.4
20260507043912 13 344 9.7 19.3 0.00 5.87 5.87 96 1012.5
20260507043819 13 355 8.0 19.3 0.00 5.87 5.87 96 1012.5
20260507043725 13 346 9.7 19.3 0.00 5.87 5.87 96 1012.5
20260507043652 13 351 11.3 19.3 0.00 5.87 5.87 96 1012.5
20260507043622 13 347 11.3 17.7 0.00 5.87 5.87 96 1012.4
20260507043334 13 336 11.3 17.7 0.00 5.87 5.87 96 1012.7
20260507043224 13 347 11.3 17.7 0.00 5.87 5.87 96 1012.7
20260507043131 13 343 11.3 17.7 0.00 5.87 5.87 96 1012.7
20260507043017 13 334 11.3 17.7 0.00 5.87 5.87 96 1012.7
20260507042923 13 334 12.9 17.7 0.00 5.87 5.87 96 1012.7
20260507042811 13 342 11.3 16.1 0.00 5.87 5.87 96 1012.5
20260507042718 13 360 9.7 16.1 0.00 5.87 5.87 96 1012.6
20260507042630 13 340 9.7 17.7 0.00 5.87 5.87 96 1012.6
20260507042517 13 355 6.4 17.7 0.00 5.87 5.87 96 1012.7
20260507042424 13 323 4.8 17.7 0.00 5.87 5.87 96 1012.7
20260507042312 13 355 4.8 17.7 0.00 5.87 5.87 96 1012.5
20260507042219 13 28 6.4 17.7 0.00 5.87 5.87 96 1012.4
20260507042146 13 355 9.7 17.7 0.00 5.87 5.87 96 1012.4
20260507042100 13 337 11.3 17.7 0.00 5.87 5.87 96 1012.4
20260507041813 13 25 8.0 17.7 0.03 5.87 5.87 96 1012.0
20260507041720 13 340 6.4 16.1 0.03 5.87 5.87 96 1012.0
20260507041627 13 23 6.4 16.1 0.03 5.87 5.87 96 1012.0
20260507041517 13 25 8.0 16.1 0.03 5.87 5.87 96 1012.0
20260507041425 13 21 9.7 16.1 0.03 5.87 5.87 96 1012.0
20260507041312 13 344 11.3 16.1 0.05 5.87 5.87 96 1012.1
20260507041221 13 11 11.3 16.1 0.05 5.87 5.87 96 1012.3
20260507041129 13 24 11.3 16.1 0.05 5.87 5.87 96 1012.3
20260507041020 13 37 9.7 16.1 0.08 5.87 5.87 96 1012.5
20260507040948 13 355 9.7 16.1 0.08 5.87 5.87 96 1012.5
20260507040815 13 360 8.0 16.1 0.10 5.87 5.87 96 1012.6
20260507040722 13 334 8.0 14.5 0.10 5.87 5.87 96 1012.6
20260507040610 13 337 9.7 14.5 0.10 5.87 5.87 96 1012.7
20260507040544 13 355 9.7 14.5 0.10 5.87 5.87 96 1012.7
20260507040318 13 5 9.7 14.5 0.10 5.87 5.87 96 1012.7
20260507040224 13 360 9.7 14.5 0.10 5.87 5.87 96 1012.7
20260507040111 13 342 9.7 14.5 0.10 5.87 5.87 96 1012.8
20260507040018 13 355 8.0 14.5 0.10 5.87 5.87 96 1012.8
20260507035925 13 328 8.0 14.5 0.10 5.87 5.87 96 1012.8
20260507035836 13 355 9.7 14.5 0.10 5.87 5.87 96 1012.5
20260507035722 13 18 9.7 16.1 0.10 5.87 5.87 96 1012.5
20260507035611 13 19 9.7 16.1 0.10 5.87 5.87 96 1012.3
20260507035518 13 9 9.7 16.1 0.10 5.87 5.87 96 1012.3
20260507035426 13 9 9.7 16.1 0.10 5.87 5.87 96 1012.3
20260507035315 13 10 9.7 17.7 0.10 5.87 5.87 96 1012.1
20260507035226 13 42 9.7 17.7 0.10 5.87 5.87 96 1012.1
20260507035134 13 10 9.7 17.7 0.10 5.87 5.87 96 1011.9
20260507035105 13 5 11.3 17.7 0.10 5.87 5.87 96 1012.0
20260507034819 13 31 9.7 19.3 0.10 5.87 5.87 96 1012.2
20260507034711 13 355 9.7 19.3 0.10 5.87 5.87 96 1012.2
20260507034619 13 347 9.7 19.3 0.10 5.87 5.87 96 1012.2
20260507034528 13 11 11.3 19.3 0.10 5.87 5.87 96 1012.2
20260507034415 13 5 9.7 19.3 0.10 5.87 5.87 96 1012.2
20260507034322 13 13 8.0 19.3 0.10 5.87 5.87 96 1012.2
20260507034229 13 22 9.7 19.3 0.10 5.87 5.87 96 1012.2
20260507034120 13 355 12.9 19.3 0.10 5.87 5.87 96 1012.2
20260507034027 13 19 11.3 19.3 0.10 5.87 5.87 96 1012.2
20260507033915 13 14 9.7 17.7 0.10 5.87 5.87 96 1012.3
20260507033823 13 5 8.0 16.1 0.10 5.87 5.87 96 1012.3
20260507033711 13 360 8.0 16.1 0.10 5.87 5.87 96 1012.4
20260507033622 13 351 9.7 16.1 0.10 5.87 5.87 96 1012.4
20260507033553 13 344 9.7 22.5 0.10 5.87 5.87 96 1012.4
20260507033327 13 344 9.7 22.5 0.13 5.87 5.87 96 1012.7
20260507033214 13 327 9.7 22.5 0.13 5.87 5.87 96 1012.8
20260507033122 13 5 9.7 22.5 0.13 5.87 5.87 96 1012.8
20260507033012 13 329 8.0 22.5 0.18 5.87 5.87 96 1012.9
20260507032919 13 346 9.7 22.5 0.20 5.87 5.87 96 1012.9
20260507032826 13 355 11.3 22.5 0.20 5.87 5.87 96 1012.9
20260507032713 13 360 12.9 22.5 0.20 5.87 5.87 96 1012.8
20260507032640 13 349 14.5 22.5 0.20 5.87 5.87 96 1012.8
20260507032527 13 340 11.3 20.9 0.20 5.87 5.87 96 1012.8
20260507032418 13 338 11.3 17.7 0.20 5.87 5.87 96 1012.6
20260507032345 13 360 11.3 20.9 0.20 5.87 5.87 96 1012.6
20260507032212 13 340 11.3 20.9 0.20 5.87 5.87 96 1012.2
20260507032119 13 340 11.3 20.9 0.20 5.87 5.87 96 1012.3
20260507032050 13 346 11.3 20.9 0.18 5.84 5.84 96 1012.3
20260507031828 13 339 9.7 20.9 0.18 5.84 5.84 96 1012.2
20260507031716 13 350 8.0 22.5 0.18 5.84 5.84 96 1012.2
20260507031622 13 355 11.3 22.5 0.18 5.84 5.84 96 1012.2
20260507031510 13 20 14.5 22.5 0.18 5.84 5.84 96 1012.0
20260507031419 13 20 14.5 22.5 0.18 5.84 5.84 96 1012.1
20260507031310 13 5 12.9 22.5 0.15 5.82 5.82 96 1012.0
20260507031218 13 345 12.9 22.5 0.15 5.82 5.82 96 1011.9
20260507031146 13 18 12.9 22.5 0.13 5.79 5.79 96 1011.9
20260507031033 13 13 14.5 22.5 0.13 5.79 5.79 96 1012.0
20260507030920 13 355 12.9 22.5 0.13 5.79 5.79 96 1012.3
20260507030828 13 19 12.9 19.3 0.10 5.77 5.77 96 1012.3
20260507030719 13 12 12.9 19.3 0.10 5.77 5.77 96 1012.3
20260507030626 13 38 12.9 19.3 0.10 5.77 5.77 96 1012.3
20260507030557 13 355 12.9 19.3 0.10 5.77 5.77 96 1012.3
20260507030311 13 20 12.9 19.3 0.10 5.77 5.77 96 1012.3
20260507030219 13 17 11.3 17.7 0.10 5.77 5.77 96 1012.3
20260507030130 13 323 9.7 19.3 0.10 5.77 5.77 96 1012.3
20260507030018 13 355 9.7 19.3 0.10 5.77 5.77 96 1012.2
20260507025946 13 41 9.7 19.3 0.10 5.77 5.77 96 1012.2
20260507025812 13 21 11.3 19.3 0.10 5.77 5.77 96 1012.0
20260507025718 13 355 11.3 19.3 0.10 5.77 5.77 96 1012.0
20260507025626 13 360 12.9 19.3 0.10 5.77 5.77 96 1012.0
20260507025517 13 12 12.9 19.3 0.10 5.77 5.77 96 1012.1
20260507025424 13 360 14.5 19.3 0.10 5.77 5.77 96 1012.1
20260507025311 13 338 14.5 19.3 0.10 5.77 5.77 96 1012.3
20260507025237 13 323 11.3 19.3 0.10 5.77 5.77 96 1012.3
20260507025124 13 5 11.3 17.7 0.10 5.77 5.77 96 1012.3
20260507025058 13 339 9.7 17.7 0.10 5.77 5.77 96 1012.4
20260507024811 13 336 9.7 17.7 0.10 5.77 5.77 96 1012.2
20260507024718 13 347 11.3 17.7 0.10 5.77 5.77 96 1012.2
20260507024626 13 5 11.3 17.7 0.10 5.77 5.77 96 1012.2
20260507024513 13 22 12.9 17.7 0.10 5.77 5.77 96 1012.1
20260507024444 13 19 12.9 17.7 0.10 5.77 5.77 96 1012.1
20260507024311 13 348 11.3 17.7 0.10 5.77 5.77 96 1012.2
20260507024220 13 350 9.7 17.7 0.10 5.77 5.77 96 1012.2
20260507024127 13 19 8.0 17.7 0.10 5.77 5.77 96 1012.2
20260507024015 13 348 8.0 17.7 0.10 5.77 5.77 96 1012.2
20260507023922 13 17 9.7 17.7 0.10 5.77 5.77 96 1012.2
20260507023815 13 5 11.3 17.7 0.10 5.77 5.77 96 1012.3
20260507023723 13 12 11.3 17.7 0.10 5.77 5.77 96 1012.3
20260507023630 14 350 9.7 17.7 0.10 5.77 5.77 96 1012.2
20260507023600 14 334 8.0 17.7 0.10 5.77 5.77 96 1012.3
20260507023318 14 323 6.4 16.1 0.08 5.74 5.74 96 1012.1
20260507023226 14 341 6.4 16.1 0.08 5.74 5.74 96 1012.1
20260507023113 14 355 6.4 16.1 0.08 5.74 5.74 96 1012.1
20260507023022 14 348 8.0 16.1 0.03 5.69 5.69 96 1012.1
20260507022929 14 334 8.0 16.1 0.00 5.66 5.66 96 1012.0
20260507022820 14 341 8.0 16.1 0.00 5.66 5.66 96 1012.1
20260507022747 14 348 9.7 16.1 0.00 5.66 5.66 96 1012.1
20260507022613 14 332 12.9 16.1 0.00 5.66 5.66 96 1012.3
20260507022541 14 339 12.9 16.1 0.00 5.66 5.66 96 1012.1
20260507022426 14 325 11.3 16.1 0.00 5.66 5.66 96 1012.1
20260507022311 14 334 9.7 14.5 0.00 5.66 5.66 96 1012.0
20260507022219 14 321 8.0 14.5 0.00 5.66 5.66 96 1012.1
20260507022132 14 348 8.0 12.9 0.00 5.66 5.66 96 1012.1
20260507022102 14 346 6.4 12.9 0.00 5.66 5.66 96 1012.0
20260507021815 14 355 4.8 12.9 0.00 5.66 5.66 96 1012.1
20260507021723 14 360 3.2 12.9 0.00 5.66 5.66 96 1012.1
20260507021615 14 15 3.2 12.9 0.00 5.66 5.66 96 1012.1
20260507021523 14 5 3.2 12.9 0.00 5.66 5.66 96 1012.1
20260507021412 14 18 4.8 12.9 0.00 5.66 5.66 96 1012.1
20260507021320 14 30 6.4 12.9 0.00 5.66 5.66 96 1012.0
20260507021226 14 9 4.8 12.9 0.00 5.66 5.66 96 1012.0
20260507021118 14 360 3.2 9.7 0.00 5.66 5.66 96 1011.9
20260507021026 14 26 3.2 9.7 0.00 5.66 5.66 96 1011.9
20260507020914 14 28 4.8 14.5 0.00 5.66 5.66 96 1011.8
20260507020822 14 21 6.4 14.5 0.00 5.66 5.66 96 1011.8
20260507020730 14 81 6.4 14.5 0.00 5.66 5.66 96 1011.7
20260507020638 14 43 4.8 14.5 0.00 5.66 5.66 96 1011.8
20260507020551 14 46 4.8 14.5 0.00 5.66 5.66 96 1011.8
20260507020325 14 46 4.8 14.5 0.00 5.66 5.66 96 1011.9
20260507020212 14 37 8.0 14.5 0.00 5.66 5.66 96 1012.0
20260507020120 14 23 9.7 14.5 0.00 5.66 5.66 96 1012.1
20260507020011 14 21 8.0 14.5 0.00 5.66 5.66 96 1012.1
20260507015938 14 31 6.4 14.5 0.00 5.66 5.66 96 1012.1
20260507015844 14 347 8.0 14.5 0.00 5.66 5.66 96 1012.1
20260507015750 14 355 8.0 12.9 0.00 5.66 5.66 96 1012.1
20260507015616 14 35 8.0 11.3 0.00 5.66 5.66 96 1012.1
20260507015524 14 342 8.0 12.9 0.00 5.66 5.66 96 1012.1
20260507015432 14 336 9.7 12.9 0.00 5.66 5.66 96 1012.0
20260507015317 14 348 8.0 12.9 0.00 5.66 5.66 96 1011.9
20260507015228 14 355 6.4 12.9 0.00 5.66 5.66 96 1011.9
20260507015114 14 20 8.0 16.1 0.00 5.66 5.66 96 1011.9
20260507015046 14 49 8.0 16.1 0.00 5.66 5.66 96 1011.9
20260507014820 14 21 6.4 16.1 0.00 5.66 5.66 96 1011.7
20260507014711 14 21 6.4 16.1 0.00 5.66 5.66 96 1011.6
20260507014638 14 5 6.4 16.1 0.00 5.66 5.66 96 1011.4
20260507014526 14 15 8.0 16.1 0.00 5.66 5.66 96 1011.4
20260507014433 14 22 9.7 16.1 0.00 5.66 5.66 96 1011.6
20260507014319 14 24 9.7 16.1 0.00 5.66 5.66 96 1011.7
20260507014226 14 5 8.0 16.1 0.00 5.66 5.66 96 1011.7
20260507014132 14 5 4.8 16.1 0.00 5.66 5.66 96 1011.8
20260507014043 14 11 4.8 16.1 0.00 5.66 5.66 96 1011.8
20260507013930 14 339 8.0 16.1 0.00 5.66 5.66 96 1011.7
20260507013818 14 27 8.0 16.1 0.00 5.66 5.66 96 1011.7
20260507013725 14 29 8.0 16.1 0.00 5.66 5.66 96 1011.7
20260507013634 15 5 6.4 16.1 0.00 5.66 5.66 96 1011.6
20260507013547 15 20 8.0 16.1 0.00 5.66 5.66 96 1011.6
20260507013322 15 355 8.0 16.1 0.00 5.66 5.66 96 1011.6
20260507013229 15 34 8.0 16.1 0.00 5.66 5.66 96 1011.6
20260507013117 15 5 6.4 12.9 0.00 5.66 5.66 96 1011.5
20260507013024 15 32 4.8 12.9 0.00 5.66 5.66 96 1011.5
20260507012915 15 48 4.8 12.9 0.00 5.66 5.66 96 1011.6
20260507012824 15 10 4.8 12.9 0.00 5.66 5.66 96 1011.6
20260507012711 14 19 6.4 12.9 0.00 5.66 5.66 96 1011.6
20260507012617 15 26 6.4 12.9 0.00 5.66 5.66 96 1011.5
20260507012524 15 28 6.4 12.9 0.00 5.66 5.66 96 1011.5
20260507012413 15 32 8.0 12.9 0.00 5.66 5.66 96 1011.4
20260507012323 15 40 9.7 12.9 0.00 5.66 5.66 96 1011.4
20260507012210 15 33 8.0 12.9 0.00 5.66 5.66 96 1011.5
20260507012119 14 23 8.0 12.9 0.00 5.66 5.66 96 1011.6
20260507012049 14 35 6.4 9.7 0.00 5.66 5.66 96 1011.6
20260507011828 14 35 4.8 9.7 0.00 5.66 5.66 96 1011.7
20260507011715 14 46 4.8 9.7 0.00 5.66 5.66 96 1011.9
20260507011624 14 346 6.4 9.7 0.00 5.66 5.66 96 1011.9
20260507011512 14 355 4.8 9.7 0.00 5.66 5.66 96 1011.8
20260507011440 14 19 3.2 9.7 0.00 5.66 5.66 96 1011.8
20260507011326 14 355 4.8 9.7 0.00 5.66 5.66 96 1011.8
20260507011219 14 355 4.8 9.7 0.00 5.66 5.66 96 1011.7
20260507011126 14 46 4.8 9.7 0.00 5.66 5.66 96 1011.7
20260507011034 15 44 6.4 11.3 0.00 5.66 5.66 96 1011.5
20260507010920 15 13 4.8 11.3 0.00 5.66 5.66 96 1011.6
20260507010828 15 355 6.4 11.3 0.00 5.66 5.66 96 1011.6
20260507010715 15 30 6.4 11.3 0.00 5.66 5.66 96 1011.5
20260507010627 15 54 6.4 14.5 0.00 5.66 5.66 96 1011.5
20260507010558 15 30 4.8 14.5 0.00 5.66 5.66 96 1011.5
20260507010312 15 17 6.4 14.5 0.00 5.66 5.66 96 1011.4
20260507010220 15 40 6.4 14.5 0.00 5.66 5.66 96 1011.3
20260507010111 15 360 6.4 14.5 0.00 5.66 5.66 96 1011.3
20260507010038 15 5 8.0 14.5 0.00 5.66 5.66 96 1011.4
20260507005943 15 5 8.0 14.5 0.00 5.66 5.66 96 1011.4
20260507005829 15 11 8.0 14.5 0.00 5.66 5.66 96 1011.4
20260507005717 15 17 6.4 12.9 0.00 5.66 5.66 96 1011.9
20260507005624 15 5 6.4 9.7 0.00 5.66 5.66 96 1011.9
20260507005515 15 9 6.4 9.7 0.00 5.66 5.66 96 1012.2
20260507005422 15 11 6.4 8.0 0.00 5.66 5.66 96 1012.2
20260507005330 15 339 6.4 8.0 0.00 5.66 5.66 96 1012.3
20260507005238 15 17 4.8 8.0 0.00 5.66 5.66 96 1012.2
20260507005144 15 333 3.2 8.0 0.00 5.66 5.66 96 1012.2
20260507005052 15 355 4.8 8.0 0.00 5.66 5.66 96 1012.2
20260507004850 15 32 4.8 8.0 0.00 5.66 5.66 96 1012.2
20260507004718 15 5 4.8 8.0 0.00 5.66 5.66 96 1012.2
20260507004625 15 19 4.8 8.0 0.00 5.66 5.66 96 1012.2
20260507004511 15 351 4.8 8.0 0.00 5.66 5.66 96 1012.3
20260507004419 15 21 3.2 8.0 0.00 5.66 5.66 96 1012.3
20260507004311 15 18 4.8 8.0 0.00 5.66 5.66 96 1012.2
20260507004218 15 12 4.8 8.0 0.00 5.66 5.66 96 1012.2
20260507004125 15 350 4.8 9.7 0.00 5.66 5.66 96 1012.2
20260507004012 15 17 4.8 11.3 0.00 5.66 5.66 96 1012.3
20260507003941 15 34 3.2 16.1 0.00 5.66 5.66 96 1012.3
20260507003827 15 32 3.2 16.1 0.00 5.66 5.66 96 1012.3
20260507003720 15 95 3.2 16.1 0.00 5.66 5.66 96 1012.2
20260507003626 15 85 3.2 16.1 0.00 5.66 5.66 96 1012.2
20260507003555 15 98 3.2 16.1 0.00 5.66 5.66 95 1012.3
20260507003330 15 69 6.4 16.1 0.00 5.66 5.66 95 1012.3
20260507003219 15 57 8.0 16.1 0.00 5.66 5.66 96 1012.3
20260507003129 15 67 8.0 16.1 0.00 5.66 5.66 96 1012.3
20260507003018 15 38 4.8 14.5 0.00 5.66 5.66 96 1012.2
20260507002925 15 36 8.0 14.5 0.00 5.66 5.66 96 1012.2
20260507002812 15 27 8.0 14.5 0.00 5.66 5.66 95 1012.2
20260507002740 15 10 6.4 16.1 0.00 5.66 5.66 95 1012.2
20260507002610 15 5 6.4 16.1 0.00 5.66 5.66 95 1012.2
20260507002537 15 360 8.0 17.7 0.00 5.66 5.66 95 1012.1
20260507002423 15 26 9.7 17.7 0.00 5.66 5.66 95 1012.1
20260507002311 15 22 9.7 17.7 0.00 5.66 5.66 95 1011.9
20260507002239 15 355 9.7 17.7 0.03 5.66 5.66 95 1012.0
20260507002125 15 5 9.7 17.7 0.03 5.66 5.66 95 1012.0
20260507002100 15 17 11.3 17.7 0.03 5.66 5.66 95 1011.9
20260507001813 15 33 9.7 17.7 0.03 5.66 5.66 95 1012.0
20260507001721 15 5 8.0 17.7 0.03 5.66 5.66 95 1012.0
20260507001629 15 360 8.0 17.7 0.03 5.66 5.66 95 1012.0
20260507001517 15 32 9.7 17.7 0.03 5.66 5.66 95 1012.1
20260507001429 15 34 9.7 17.7 0.03 5.66 5.66 95 1012.1
20260507001316 15 46 9.7 19.3 0.03 5.66 5.66 95 1012.2
20260507001245 15 355 8.0 19.3 0.03 5.66 5.66 95 1012.2
20260507001130 15 16 9.7 19.3 0.03 5.66 5.66 95 1012.2
20260507001038 15 12 12.9 19.3 0.03 5.66 5.66 95 1012.0
20260507000923 15 37 12.9 19.3 0.03 5.66 5.66 95 1012.0
20260507000832 15 12 11.3 19.3 0.03 5.66 5.66 95 1011.9
20260507000722 15 27 11.3 19.3 0.03 5.66 5.66 95 1011.9
20260507000649 15 355 11.3 19.3 0.03 5.66 5.66 95 1011.9
20260507000559 15 5 11.3 19.3 0.03 5.66 5.66 95 1011.9
20260507000314 15 37 11.3 17.7 0.03 5.66 5.66 96 1011.8
20260507000220 15 355 9.7 17.7 0.03 5.66 5.66 96 1011.9
20260507000130 15 30 11.3 17.7 0.03 5.66 5.66 96 1011.9
20260507000037 15 360 11.3 17.7 0.03 5.66 5.66 96 1012.0
20260506235923 15 34 11.3 17.7 0.03 5.66 5.66 96 1012.0
20260506235850 15 15 9.7 19.3 0.03 5.66 5.66 96 1012.0
20260506235717 15 11 9.7 20.9 0.03 5.66 5.66 96 1012.1
20260506235624 15 355 9.7 20.9 0.03 5.66 5.66 96 1012.1
20260506235516 16 340 9.7 22.5 0.03 5.66 5.66 96 1012.0
20260506235423 16 355 9.7 22.5 0.03 5.66 5.66 96 1012.0
20260506235311 16 355 9.7 22.5 0.03 5.66 5.66 95 1011.6
20260506235240 16 355 12.9 22.5 0.03 5.66 5.66 95 1011.7
20260506235127 16 13 14.5 22.5 0.03 5.66 5.66 95 1011.7
20260506235101 16 339 16.1 22.5 0.03 5.66 5.66 95 1011.7
20260506234813 16 323 14.5 22.5 0.08 5.66 5.66 96 1012.2
20260506234720 16 355 11.3 22.5 0.08 5.66 5.66 96 1012.2
20260506234627 16 350 9.7 20.9 0.10 5.66 5.66 96 1012.2
20260506234515 16 312 8.0 20.9 0.15 5.66 5.66 96 1012.1
20260506234423 16 320 11.3 20.9 0.15 5.66 5.66 96 1012.1
20260506234314 16 351 12.9 20.9 0.20 5.66 5.66 96 1012.3
20260506234221 16 342 12.9 20.9 0.20 5.66 5.66 96 1012.3
20260506234129 16 329 12.9 20.9 0.20 5.66 5.66 96 1012.3
20260506234016 16 349 11.3 17.7 0.20 5.66 5.66 96 1011.9
20260506233923 16 9 11.3 17.7 0.20 5.66 5.66 96 1011.9
20260506233815 16 17 12.9 17.7 0.23 5.66 5.66 96 1012.0
20260506233721 16 360 11.3 17.7 0.23 5.66 5.66 95 1012.0
20260506233628 16 355 9.7 17.7 0.23 5.66 5.66 95 1012.1
20260506233559 16 313 9.7 14.5 0.25 5.66 5.66 95 1012.2
20260506233313 16 323 8.0 14.5 0.30 5.66 5.66 96 1012.3
20260506233224 16 360 8.0 14.5 0.30 5.66 5.66 95 1012.3
20260506233111 16 5 8.0 14.5 0.38 5.66 5.66 95 1012.3
20260506233039 16 318 8.0 14.5 0.38 5.66 5.66 96 1012.3
20260506232924 16 317 9.7 14.5 0.38 5.66 5.66 95 1012.3
20260506232811 16 317 9.7 14.5 0.38 5.66 5.66 95 1012.1
20260506232739 16 317 8.0 14.5 0.38 5.66 5.66 96 1011.9
20260506232629 16 327 6.4 16.1 0.38 5.66 5.66 96 1011.9
20260506232536 16 329 6.4 16.1 0.38 5.66 5.66 95 1011.7
20260506232423 16 333 8.0 16.1 0.38 5.66 5.66 95 1011.7
20260506232310 16 325 8.0 16.1 0.41 5.66 5.66 95 1011.3
20260506232216 16 351 9.7 16.1 0.38 5.64 5.64 95 1011.3
20260506232124 16 346 8.0 16.1 0.38 5.64 5.64 95 1011.3
20260506232058 16 5 8.0 19.3 0.38 5.64 5.64 95 1011.3
20260506231812 16 350 8.0 20.9 0.38 5.64 5.64 95 1011.4
20260506231720 16 346 9.7 20.9 0.38 5.64 5.64 95 1011.4
20260506231627 16 5 8.0 20.9 0.38 5.64 5.64 95 1011.4
20260506231518 17 31 8.0 20.9 0.38 5.64 5.64 95 1011.4
20260506231425 17 343 8.0 20.9 0.38 5.64 5.64 95 1011.4
20260506231333 17 19 11.3 20.9 0.38 5.64 5.64 95 1011.4
20260506231220 17 9 12.9 20.9 0.38 5.64 5.64 95 1011.6
20260506231127 17 22 14.5 25.7 0.38 5.64 5.64 95 1011.6
20260506231014 17 41 16.1 25.7 0.38 5.64 5.64 95 1011.6
20260506230926 17 17 14.5 25.7 0.38 5.64 5.64 95 1011.6
20260506230813 17 36 11.3 25.7 0.38 5.64 5.64 95 1011.7
20260506230720 17 29 9.7 25.7 0.38 5.64 5.64 96 1011.8
20260506230649 17 22 12.9 25.7 0.38 5.64 5.64 96 1011.8
20260506230559 17 19 14.5 25.7 0.38 5.64 5.64 96 1011.8
20260506230316 17 5 12.9 25.7 0.38 5.64 5.64 96 1012.0
20260506230243 17 323 9.7 19.3 0.38 5.64 5.64 96 1012.0
20260506230110 17 338 11.3 19.3 0.38 5.64 5.64 96 1012.0
20260506230018 17 344 14.5 19.3 0.38 5.64 5.64 96 1012.0
20260506225926 17 332 14.5 19.3 0.38 5.64 5.64 96 1012.0
20260506225834 17 345 12.9 20.9 0.38 5.64 5.64 96 1011.8
20260506225724 17 346 11.3 22.5 0.38 5.64 5.64 96 1011.8
20260506225612 17 338 12.9 22.5 0.38 5.64 5.64 96 1011.9
20260506225519 18 342 12.9 22.5 0.38 5.64 5.64 96 1011.8
20260506225427 18 342 12.9 22.5 0.38 5.64 5.64 96 1011.8
20260506225313 18 355 12.9 22.5 0.38 5.64 5.64 96 1011.6
20260506225221 18 320 14.5 22.5 0.38 5.64 5.64 96 1011.7
20260506225133 18 355 16.1 22.5 0.38 5.64 5.64 96 1011.7
20260506225103 18 321 16.1 22.5 0.36 5.61 5.61 96 1011.6
20260506224817 18 345 14.5 20.9 0.33 5.59 5.59 96 1011.5
20260506224725 18 360 12.9 19.3 0.30 5.56 5.56 96 1011.5
20260506224616 18 331 12.9 17.7 0.25 5.51 5.51 96 1011.4
20260506224523 18 338 12.9 17.7 0.25 5.51 5.51 96 1011.4
20260506224411 18 321 11.3 17.7 0.23 5.49 5.49 96 1011.4
20260506224320 18 355 11.3 17.7 0.20 5.46 5.46 96 1011.5
20260506224227 18 335 9.7 17.7 0.20 5.46 5.46 96 1011.5
20260506224118 18 326 9.7 14.5 0.23 5.46 5.46 96 1011.4
20260506224026 18 324 8.0 14.5 0.23 5.46 5.46 96 1011.4
20260506223913 18 332 8.0 14.5 0.23 5.44 5.44 96 1011.3
20260506223820 18 313 8.0 14.5 0.23 5.44 5.44 96 1011.4
20260506223728 18 337 8.0 16.1 0.25 5.44 5.44 96 1011.4
20260506223615 18 317 8.0 16.1 0.25 5.41 5.41 96 1011.4
20260506223549 18 309 8.0 19.3 0.23 5.38 5.38 96 1011.4
20260506223323 18 336 8.0 19.3 0.23 5.36 5.36 96 1011.5
20260506223210 18 335 8.0 19.3 0.18 5.31 5.31 96 1011.5
20260506223138 18 332 6.4 19.3 0.15 5.28 5.28 96 1011.4
20260506223025 18 325 8.0 19.3 0.15 5.28 5.28 96 1011.4
20260506222936 18 348 11.3 19.3 0.18 5.28 5.28 97 1011.4
20260506222823 18 309 9.7 19.3 0.18 5.28 5.28 97 1011.4
20260506222710 18 328 9.7 19.3 0.18 5.28 5.28 97 1011.3
20260506222638 18 309 9.7 16.1 0.18 5.28 5.28 97 1011.5
20260506222544 18 303 11.3 16.1 0.18 5.28 5.28 97 1011.5
20260506222411 18 338 8.0 16.1 0.15 5.26 5.26 97 1011.4
20260506222322 18 316 6.4 16.1 0.15 5.26 5.26 97 1011.4
20260506222228 18 342 4.8 14.5 0.15 5.26 5.26 97 1011.3
20260506222136 18 328 4.8 14.5 0.15 5.26 5.26 97 1011.3
20260506222045 18 317 4.8 14.5 0.15 5.26 5.26 97 1011.3
20260506221820 18 302 6.4 14.5 0.15 5.26 5.26 97 1011.2
20260506221711 18 309 8.0 14.5 0.15 5.26 5.26 97 1011.3
20260506221619 18 323 6.4 14.5 0.15 5.26 5.26 97 1011.3
20260506221527 18 321 6.4 12.9 0.15 5.26 5.26 97 1011.3
20260506221415 18 325 4.8 9.7 0.18 5.26 5.26 97 1011.2
20260506221322 18 315 4.8 6.4 0.18 5.26 5.26 97 1011.2
20260506221250 18 323 4.8 6.4 0.18 5.26 5.26 97 1011.2
20260506221121 18 319 4.8 6.4 0.18 5.26 5.26 97 1011.1
20260506221028 18 325 4.8 6.4 0.18 5.26 5.26 97 1011.0
20260506220915 18 355 4.8 6.4 0.23 5.26 5.26 97 1011.2
20260506220823 18 341 3.2 6.4 0.23 5.26 5.26 97 1011.2
20260506220710 18 319 3.2 4.8 0.23 5.26 5.26 97 1011.2
20260506220639 18 323 1.6 4.8 0.23 5.26 5.26 97 1011.2
20260506220554 18 329 1.6 4.8 0.23 5.26 5.26 97 1011.2
20260506220328 18 301 0.0 4.8 0.25 5.26 5.26 97 1011.2
20260506220216 18 317 0.0 0.0 0.38 5.26 5.26 97 1011.1
20260506220144 18 360 0.0 0.0 0.38 5.26 5.26 97 1011.1
20260506220011 18 360 0.0 0.0 0.41 5.26 5.26 97 1011.2
20260506215922 18 360 0.0 0.0 0.41 5.26 5.26 97 1011.2
20260506215810 18 360 0.0 0.0 0.48 5.26 5.26 97 1011.1
20260506215718 18 360 0.0 0.0 0.58 5.26 5.26 97 1011.1
20260506215624 18 360 0.0 0.0 0.58 5.26 5.26 97 1011.1
20260506215512 18 360 0.0 0.0 0.61 5.26 5.26 97 1011.1
20260506215422 18 360 0.0 0.0 0.61 5.26 5.26 97 1011.1
20260506215329 18 360 0.0 0.0 0.64 5.26 5.26 97 1010.9
20260506215217 18 360 0.0 0.0 0.64 5.26 5.26 97 1010.7
20260506215124 18 360 0.0 4.8 0.64 5.26 5.26 97 1010.7
20260506215054 18 360 0.0 4.8 0.64 5.26 5.26 97 1010.7
20260506214811 18 360 0.0 4.8 0.64 5.26 5.26 97 1010.8
20260506214718 18 360 0.0 4.8 0.66 5.26 5.26 97 1010.7
20260506214624 18 360 0.0 4.8 0.66 5.26 5.26 97 1010.7
20260506214531 18 360 0.0 4.8 0.66 5.26 5.26 97 1010.5
20260506214418 18 360 0.0 4.8 0.69 5.26 5.26 97 1010.5
20260506214326 18 360 1.6 4.8 0.69 5.26 5.26 97 1010.5
20260506214217 18 360 1.6 3.2 0.69 5.26 5.26 97 1010.4
20260506214124 18 360 1.6 3.2 0.66 5.23 5.23 97 1010.4
20260506214011 18 360 1.6 3.2 0.64 5.21 5.21 97 1010.5
20260506213920 18 360 0.0 4.8 0.66 5.21 5.21 97 1010.6
20260506213828 18 360 0.0 4.8 0.64 5.18 5.18 97 1010.6
20260506213718 18 360 0.0 4.8 0.71 5.16 5.16 96 1010.6
20260506213556 18 360 0.0 4.8 0.71 5.16 5.16 97 1010.6
20260506213328 18 360 0.0 4.8 0.69 5.13 5.13 97 1010.7
20260506213217 18 360 1.6 4.8 0.69 5.13 5.13 97 1010.8
20260506213150 18 360 1.6 4.8 0.69 5.13 5.13 97 1010.8
20260506213017 18 360 3.2 4.8 0.69 5.11 5.11 96 1010.8
20260506212925 18 360 1.6 4.8 0.69 5.11 5.11 97 1010.8
20260506212831 18 360 1.6 4.8 0.69 5.11 5.11 97 1010.8
20260506212717 18 360 1.6 4.8 0.71 5.11 5.11 97 1010.7
20260506212624 18 360 1.6 4.8 0.71 5.11 5.11 97 1010.7
20260506212530 18 360 1.6 4.8 0.74 5.11 5.11 97 1010.6
20260506212420 18 360 3.2 4.8 0.76 5.11 5.11 97 1010.5
20260506212329 18 360 3.2 4.8 0.79 5.11 5.11 97 1010.5
20260506212216 18 20 3.2 4.8 0.84 5.11 5.11 97 1010.4
20260506212123 18 355 3.2 4.8 0.84 5.11 5.11 97 1010.4
20260506212057 18 355 3.2 4.8 0.99 5.11 5.11 97 1010.5
20260506211811 18 360 3.2 4.8 1.14 5.11 5.11 97 1010.4
20260506211719 18 336 1.6 4.8 1.17 5.11 5.11 97 1010.4
20260506211627 18 336 1.6 4.8 1.17 5.11 5.11 97 1010.4
20260506211514 18 336 3.2 4.8 1.32 5.08 5.08 97 1010.5
20260506211421 18 355 3.2 4.8 1.32 5.08 5.08 97 1010.5
20260506211313 18 355 3.2 4.8 1.40 5.08 5.08 97 1010.5
20260506211221 18 355 3.2 4.8 1.40 5.08 5.08 97 1010.5
20260506211129 18 355 1.6 3.2 1.40 5.08 5.08 97 1010.5
20260506211037 18 355 1.6 3.2 1.40 5.05 5.05 96 1010.4
20260506210923 18 40 1.6 3.2 1.37 5.03 5.03 96 1010.4
20260506210815 18 40 1.6 3.2 1.37 5.03 5.03 97 1010.4
20260506210721 18 40 1.6 4.8 1.37 5.03 5.03 97 1010.4
20260506210629 18 40 0.0 4.8 1.40 5.03 5.03 97 1010.4
20260506210559 18 40 0.0 4.8 1.40 5.00 5.00 97 1010.3
20260506210312 18 219 0.0 4.8 1.32 4.93 4.93 97 1010.9
20260506210239 18 219 1.6 4.8 1.27 4.88 4.88 97 1010.9
20260506210130 18 219 1.6 4.8 1.27 4.88 4.88 97 1010.9
20260506210017 18 274 1.6 4.8 1.24 4.85 4.85 97 1010.8
20260506205925 18 257 1.6 4.8 1.19 4.80 4.80 97 1010.8
20260506205813 18 263 1.6 4.8 1.12 4.72 4.72 97 1010.7
20260506205721 18 264 1.6 3.2 1.07 4.67 4.67 96 1010.7
20260506205613 18 42 0.0 3.2 1.07 4.67 4.67 96 1010.6
20260506205522 18 28 0.0 4.8 1.04 4.65 4.65 96 1010.6
20260506205428 18 24 0.0 4.8 1.04 4.62 4.62 96 1010.4
20260506205315 18 24 0.0 4.8 1.04 4.62 4.62 96 1010.4
20260506205242 18 24 0.0 4.8 1.04 4.62 4.62 96 1010.4
20260506205129 18 24 1.6 4.8 1.04 4.62 4.62 96 1010.3
20260506205103 18 24 1.6 4.8 1.04 4.62 4.62 96 1010.4
20260506204818 18 10 3.2 4.8 1.04 4.62 4.62 96 1010.2
20260506204725 18 11 1.6 4.8 1.02 4.60 4.60 96 1010.2
20260506204611 18 50 1.6 4.8 1.02 4.60 4.60 96 1010.2
20260506204524 18 50 0.0 4.8 1.02 4.60 4.60 96 1010.2
20260506204412 18 50 1.6 4.8 0.99 4.57 4.57 96 1010.2
20260506204320 18 50 1.6 4.8 0.99 4.57 4.57 96 1010.2
20260506204226 18 50 3.2 4.8 0.99 4.57 4.57 96 1010.2
20260506204115 18 50 1.6 4.8 0.99 4.57 4.57 96 1010.3
20260506204042 18 50 0.0 4.8 0.99 4.57 4.57 96 1010.3
20260506203931 18 50 0.0 4.8 0.97 4.55 4.55 96 1010.4
20260506203816 18 50 0.0 4.8 0.89 4.47 4.47 96 1010.3
20260506203725 18 50 1.6 6.4 0.86 4.45 4.45 96 1010.3
20260506203632 18 50 1.6 6.4 0.86 4.45 4.45 96 1010.4
20260506203602 18 50 1.6 6.4 0.86 4.45 4.45 96 1010.3
20260506203319 18 40 1.6 6.4 0.86 4.45 4.45 96 1010.3
20260506203247 18 55 1.6 6.4 0.86 4.45 4.45 96 1010.3
20260506203113 18 42 1.6 6.4 0.86 4.45 4.45 97 1010.5
20260506203021 18 34 1.6 6.4 0.84 4.42 4.42 96 1010.5
20260506202948 18 27 1.6 6.4 0.84 4.42 4.42 96 1010.4
20260506202814 18 36 3.2 6.4 0.84 4.42 4.42 96 1010.6
20260506202726 18 5 3.2 6.4 0.84 4.42 4.42 96 1010.6
20260506202635 18 5 4.8 6.4 0.81 4.37 4.37 96 1010.7
20260506202520 18 355 3.2 4.8 0.79 4.34 4.34 96 1010.7
20260506202427 18 5 3.2 4.8 0.76 4.32 4.32 96 1010.8
20260506202314 18 345 3.2 4.8 0.74 4.29 4.29 96 1010.9
20260506202222 18 10 3.2 4.8 0.71 4.27 4.27 96 1010.9
20260506202128 18 344 3.2 4.8 0.69 4.24 4.24 96 1011.0
20260506202103 18 327 3.2 4.8 0.56 4.11 4.11 96 1011.1
20260506201817 18 276 1.6 4.8 0.43 3.96 3.96 96 1011.3
20260506201724 18 277 0.0 6.4 0.41 3.94 3.94 96 1011.3
20260506201612 18 239 0.0 6.4 0.33 3.84 3.84 96 1011.2
20260506201524 18 186 0.0 6.4 0.25 3.76 3.76 96 1011.2
20260506201411 18 176 0.0 6.4 0.20 3.71 3.71 96 1011.3
20260506201317 18 115 0.0 6.4 0.18 3.68 3.68 96 1011.1
20260506201225 18 115 0.0 6.4 0.18 3.68 3.68 96 1011.1
20260506201132 18 115 1.6 6.4 0.15 3.66 3.66 96 1010.7
20260506201039 18 115 3.2 6.4 0.18 3.66 3.66 96 1010.6
20260506200929 18 113 3.2 6.4 0.18 3.66 3.66 96 1010.6
20260506200817 18 134 3.2 4.8 0.18 3.66 3.66 96 1010.5
20260506200724 18 94 1.6 4.8 0.15 3.63 3.63 96 1010.5
20260506200653 18 73 1.6 3.2 0.15 3.61 3.61 96 1010.6
20260506200602 18 49 0.0 3.2 0.15 3.61 3.61 96 1010.6
20260506200320 18 49 1.6 3.2 0.18 3.61 3.61 96 1010.8
20260506200247 18 49 1.6 4.8 0.18 3.61 3.61 96 1010.8
20260506200133 18 49 1.6 4.8 0.20 3.61 3.61 96 1011.0
20260506200020 18 49 1.6 4.8 0.20 3.61 3.61 96 1011.0
20260506195928 18 49 1.6 4.8 0.23 3.61 3.61 96 1011.0
20260506195835 18 12 1.6 4.8 0.23 3.61 3.61 96 1011.1
20260506195722 18 355 1.6 4.8 0.23 3.61 3.61 96 1011.1
20260506195614 18 355 1.6 4.8 0.23 3.61 3.61 96 1011.2
20260506195522 18 355 1.6 4.8 0.20 3.58 3.58 96 1011.2
20260506195430 18 355 1.6 4.8 0.20 3.58 3.58 96 1011.1
20260506195317 18 327 0.0 1.6 0.20 3.58 3.58 96 1011.2
20260506195225 18 327 0.0 3.2 0.20 3.58 3.58 96 1011.2
20260506195116 18 327 0.0 4.8 0.20 3.58 3.58 96 1011.2
20260506195045 18 327 0.0 4.8 0.20 3.58 3.58 96 1011.2
20260506194818 18 327 0.0 4.8 0.23 3.58 3.58 96 1011.2
20260506194725 18 327 0.0 4.8 0.23 3.58 3.58 96 1011.2
20260506194616 18 327 0.0 4.8 0.23 3.58 3.58 96 1011.2
20260506194523 18 327 1.6 4.8 0.23 3.58 3.58 96 1011.2
20260506194430 18 327 1.6 4.8 0.23 3.58 3.58 96 1011.2
20260506194317 18 323 1.6 4.8 0.23 3.58 3.58 96 1011.2
20260506194224 18 32 0.0 3.2 0.23 3.58 3.58 96 1011.2
20260506194111 17 32 0.0 1.6 0.23 3.58 3.58 96 1011.3
20260506194023 18 32 0.0 1.6 0.23 3.58 3.58 96 1011.3
20260506193910 17 32 0.0 1.6 0.23 3.58 3.58 96 1011.2
20260506193817 18 32 0.0 3.2 0.23 3.58 3.58 96 1011.3
20260506193726 17 32 0.0 3.2 0.23 3.58 3.58 96 1011.3
20260506193613 17 32 0.0 3.2 0.23 3.58 3.58 96 1011.2
20260506193548 17 43 0.0 3.2 0.23 3.58 3.58 96 1011.2
20260506193322 17 43 0.0 3.2 0.23 3.58 3.58 96 1011.4
20260506193228 17 43 0.0 3.2 0.23 3.58 3.58 96 1011.4
20260506193135 17 53 0.0 3.2 0.23 3.58 3.58 95 1011.4
20260506193022 17 53 0.0 3.2 0.23 3.58 3.58 95 1011.4
20260506192913 17 355 0.0 1.6 0.23 3.58 3.58 95 1011.6
20260506192820 17 355 0.0 1.6 0.23 3.58 3.58 95 1011.6
20260506192728 17 355 0.0 1.6 0.25 3.58 3.58 95 1011.7
20260506192615 17 355 0.0 4.8 0.23 3.56 3.56 95 1011.6
20260506192523 17 355 0.0 4.8 0.23 3.56 3.56 95 1011.6
20260506192414 17 355 0.0 4.8 0.23 3.56 3.56 95 1011.6
20260506192322 17 355 0.0 4.8 0.23 3.56 3.56 95 1011.6
20260506192228 17 355 0.0 4.8 0.23 3.56 3.56 96 1011.7
20260506192136 17 355 0.0 4.8 0.23 3.56 3.56 95 1011.7
20260506192106 17 355 0.0 12.9 0.20 3.53 3.53 95 1011.7
20260506191821 17 355 1.6 12.9 0.20 3.53 3.53 95 1011.8
20260506191730 17 355 3.2 12.9 0.18 3.51 3.51 95 1011.8
20260506191616 17 355 1.6 12.9 0.20 3.51 3.51 95 1011.9
20260506191524 17 304 1.6 12.9 0.20 3.51 3.51 95 1011.9
20260506191412 17 304 4.8 12.9 0.20 3.51 3.51 95 1011.9
20260506191319 17 295 6.4 12.9 0.25 3.51 3.51 95 1011.9
20260506191210 17 320 3.2 12.9 0.28 3.51 3.51 95 1011.9
20260506191118 17 275 1.6 9.7 0.30 3.51 3.51 95 1012.1
20260506191025 17 306 0.0 8.0 0.28 3.48 3.48 95 1012.1
20260506190911 17 5 0.0 8.0 0.36 3.48 3.48 95 1012.0
20260506190820 17 346 0.0 8.0 0.36 3.48 3.48 95 1012.0
20260506190712 17 346 1.6 8.0 0.38 3.45 3.45 95 1012.0
20260506190619 17 346 3.2 8.0 0.46 3.45 3.45 95 1012.1
20260506190548 17 346 4.8 8.0 0.43 3.43 3.43 95 1012.1
20260506190322 17 314 4.8 8.0 0.53 3.43 3.43 95 1012.0
20260506190214 17 336 4.8 8.0 0.51 3.40 3.40 95 1012.1
20260506190123 17 304 4.8 6.4 0.51 3.40 3.40 95 1012.1
20260506190050 17 355 4.8 6.4 0.48 3.38 3.38 95 1012.2
20260506185916 17 304 4.8 6.4 0.48 3.38 3.38 95 1012.3
20260506185824 17 329 3.2 4.8 0.48 3.38 3.38 95 1012.3
20260506185732 17 319 3.2 4.8 0.51 3.38 3.38 95 1012.3
20260506185618 17 321 1.6 4.8 0.51 3.38 3.38 95 1012.3
20260506185530 17 343 1.6 4.8 0.51 3.38 3.38 95 1012.3
20260506185416 17 330 0.0 4.8 0.51 3.38 3.38 95 1012.2
20260506185324 17 330 0.0 4.8 0.51 3.38 3.38 95 1012.2
20260506185212 17 257 1.6 4.8 0.51 3.38 3.38 95 1012.3
20260506185139 17 257 1.6 4.8 0.51 3.38 3.38 95 1012.3
20260506185113 17 257 1.6 4.8 0.48 3.35 3.35 95 1012.3
20260506184826 17 286 3.2 4.8 0.48 3.35 3.35 95 1012.3
20260506184714 17 238 3.2 4.8 0.48 3.35 3.35 95 1012.2
20260506184621 17 203 3.2 4.8 0.48 3.35 3.35 95 1012.2
20260506184528 17 217 3.2 4.8 0.48 3.35 3.35 95 1012.1
20260506184420 17 220 3.2 4.8 0.51 3.35 3.35 95 1012.0
20260506184327 17 222 1.6 4.8 0.51 3.35 3.35 95 1012.0
20260506184214 17 263 1.6 4.8 0.51 3.35 3.35 95 1012.0
20260506184121 17 284 0.0 4.8 0.51 3.35 3.35 95 1012.0
20260506184029 17 284 0.0 4.8 0.51 3.35 3.35 95 1012.0
20260506183920 17 284 0.0 4.8 0.51 3.35 3.35 95 1011.9
20260506183827 17 284 0.0 11.3 0.51 3.35 3.35 95 1011.9
20260506183715 17 294 1.6 11.3 0.53 3.35 3.35 95 1011.9
20260506183643 17 294 1.6 11.3 0.53 3.35 3.35 95 1011.9
20260506183613 17 294 3.2 11.3 0.53 3.35 3.35 95 1011.9
20260506183330 17 311 1.6 11.3 0.53 3.35 3.35 95 1012.0
20260506183216 17 320 3.2 11.3 0.58 3.35 3.35 95 1012.0
20260506183125 17 282 4.8 11.3 0.58 3.35 3.35 95 1012.0
20260506183032 17 286 4.8 11.3 0.61 3.35 3.35 95 1012.1
20260506182918 17 280 3.2 9.7 0.58 3.33 3.35 95 1012.1
20260506182825 17 249 3.2 9.7 0.58 3.33 3.33 95 1012.1
20260506182736 17 264 3.2 9.7 0.64 3.33 3.33 95 1012.2
20260506182623 17 282 3.2 9.7 0.64 3.33 3.33 95 1012.2
20260506182510 17 290 1.6 9.7 0.66 3.33 3.33 95 1012.3
20260506182418 17 301 3.2 9.7 0.71 3.33 3.33 95 1012.4
20260506182346 17 315 3.2 9.7 0.71 3.33 3.33 95 1012.4
20260506182211 17 311 4.8 11.3 0.79 3.33 3.33 95 1012.4
20260506182123 17 266 4.8 11.3 0.79 3.33 3.33 95 1012.4
20260506182055 17 263 4.8 16.1 0.81 3.33 3.33 95 1012.5
20260506181828 17 290 3.2 16.1 1.04 3.33 3.33 94 1012.2
20260506181735 17 233 3.2 16.1 1.37 3.33 3.33 94 1012.4
20260506181623 17 249 4.8 16.1 1.35 3.30 3.30 94 1012.4
20260506181514 17 312 4.8 16.1 1.50 3.30 3.30 94 1012.8
20260506181422 17 305 8.0 16.1 1.50 3.30 3.30 94 1012.8
20260506181310 17 300 9.7 19.3 1.47 3.25 3.25 94 1012.7
20260506181217 17 277 11.3 19.3 1.47 3.23 3.23 94 1012.8
20260506181124 17 279 8.0 19.3 1.45 3.20 3.20 94 1012.8
20260506181014 17 281 6.4 19.3 1.45 3.15 3.15 94 1012.7
20260506180941 17 244 6.4 19.3 1.42 3.12 3.12 94 1012.7
20260506180848 17 286 6.4 19.3 1.45 3.12 3.12 94 1012.8
20260506180715 17 343 8.0 19.3 1.47 3.07 3.07 94 1013.1
20260506180623 17 312 9.7 19.3 1.40 3.00 3.00 94 1013.1
20260506180554 17 234 9.7 16.1 1.32 2.92 2.92 94 1013.3
20260506180312 17 304 8.0 16.1 1.30 2.90 2.90 94 1013.4
20260506180219 17 298 6.4 14.5 1.30 2.90 2.90 94 1013.2
20260506180126 17 263 4.8 12.9 1.30 2.90 2.90 94 1013.2
20260506180013 17 252 4.8 12.9 1.30 2.90 2.90 93 1013.0
20260506175919 17 233 4.8 12.9 1.30 2.90 2.90 93 1013.0
20260506175810 17 202 4.8 12.9 1.27 2.87 2.87 93 1012.9
20260506175718 17 220 6.4 12.9 1.27 2.87 2.87 93 1012.9
20260506175625 17 213 6.4 12.9 1.27 2.87 2.87 93 1012.9
20260506175512 17 232 6.4 11.3 1.27 2.87 2.87 93 1012.8
20260506175439 17 207 6.4 12.9 1.27 2.87 2.87 93 1012.6
20260506175325 17 195 6.4 12.9 1.27 2.87 2.87 93 1012.6
20260506175218 17 218 4.8 12.9 1.27 2.87 2.87 93 1012.3
20260506175124 17 202 3.2 12.9 1.27 2.87 2.87 93 1012.3
20260506175055 17 215 4.8 12.9 1.27 2.87 2.87 93 1012.4
20260506174848 18 189 6.4 12.9 1.27 2.87 2.87 92 1012.2
20260506174714 18 210 6.4 12.9 1.27 2.87 2.87 92 1012.2
20260506174626 18 200 4.8 12.9 1.27 2.87 2.87 92 1012.2
20260506174512 18 214 6.4 14.5 1.27 2.87 2.87 92 1012.2
20260506174420 18 223 6.4 14.5 1.24 2.84 2.84 92 1012.2
20260506174328 18 198 6.4 14.5 1.24 2.84 2.84 92 1012.2
20260506174217 18 215 3.2 14.5 1.24 2.84 2.84 92 1012.2
20260506174123 18 200 3.2 14.5 1.24 2.84 2.84 92 1012.2
20260506174014 18 159 4.8 14.5 1.24 2.84 2.84 92 1012.2
20260506173922 18 204 4.8 14.5 1.24 2.84 2.84 91 1012.2
20260506173830 18 190 4.8 14.5 1.22 2.82 2.82 91 1012.4
20260506173718 18 219 4.8 14.5 1.22 2.82 2.82 91 1012.6
20260506173625 18 204 4.8 20.9 1.22 2.82 2.82 91 1012.6
20260506173559 18 199 3.2 20.9 1.22 2.82 2.82 91 1012.8
20260506173312 18 220 8.0 20.9 1.17 2.77 2.77 90 1013.2
20260506173240 18 207 9.7 20.9 1.17 2.77 2.77 90 1013.0
20260506173127 18 263 8.0 20.9 1.17 2.77 2.77 90 1013.0
20260506173014 19 312 6.4 20.9 1.14 2.74 2.74 89 1012.8
20260506172945 19 284 8.0 20.9 1.14 2.74 2.74 89 1012.8
20260506172811 19 308 11.3 20.9 1.12 2.72 2.72 89 1012.9
20260506172739 19 290 11.3 22.5 1.09 2.69 2.69 88 1012.9
20260506172626 19 303 9.7 27.4 1.07 2.67 2.67 89 1012.9
20260506172513 20 317 8.0 33.8 1.07 2.67 2.67 89 1013.0
20260506172440 20 355 8.0 33.8 1.02 2.62 2.62 90 1013.0
20260506172311 20 324 9.7 33.8 0.97 2.57 2.57 91 1013.2
20260506172219 20 302 14.5 33.8 0.94 2.54 2.54 90 1013.2
20260506172126 20 311 17.7 33.8 0.91 2.51 2.51 90 1013.2
20260506172055 20 338 20.9 33.8 0.74 2.34 2.34 90 1013.2
20260506171828 21 290 19.3 33.8 0.58 2.18 2.18 91 1013.5
20260506171721 21 305 14.5 33.8 0.36 1.96 1.96 91 1013.4
20260506171627 21 298 8.0 17.7 0.25 1.85 1.85 91 1013.4
20260506171516 21 280 6.4 14.5 0.20 1.80 1.80 91 1013.0
20260506171423 21 337 4.8 14.5 0.20 1.80 1.80 91 1013.0
20260506171329 21 294 3.2 14.5 0.18 1.78 1.78 91 1012.9
20260506171221 21 303 3.2 14.5 0.15 1.75 1.75 91 1012.8
20260506171129 21 292 3.2 16.1 0.13 1.73 1.73 91 1012.8
20260506171017 21 313 3.2 16.1 0.10 1.70 1.70 90 1012.6
20260506170944 21 253 1.6 16.1 0.08 1.68 1.68 91 1012.6
20260506170812 21 243 1.6 16.1 0.05 1.65 1.65 90 1012.4
20260506170720 21 211 1.6 16.1 0.00 1.60 1.60 90 1012.4
20260506170647 21 252 3.2 16.1 0.00 1.60 1.60 90 1012.4
20260506170601 21 215 4.8 16.1 0.00 1.60 1.60 90 1012.4
20260506170315 21 200 8.0 16.1 0.00 1.60 1.60 89 1012.5
20260506170243 21 210 6.4 16.1 0.00 1.60 1.60 89 1012.5
20260506170110 21 179 4.8 12.9 0.00 1.60 1.60 89 1012.3
20260506170020 21 194 6.4 14.5 0.00 1.60 1.60 89 1012.3
20260506165948 21 216 6.4 16.1 0.00 1.60 1.60 89 1012.3
20260506165834 21 201 8.0 17.7 0.00 1.60 1.60 89 1012.2
20260506165721 21 205 8.0 17.7 0.00 1.60 1.60 89 1012.2
20260506165627 21 219 8.0 17.7 0.00 1.60 1.60 89 1012.2
20260506165514 21 210 9.7 17.7 0.00 1.60 1.60 89 1012.2
20260506165442 21 223 9.7 27.4 0.00 1.60 1.60 89 1012.2
20260506165313 21 198 11.3 27.4 0.00 1.60 1.60 89 1012.1
20260506165221 21 192 11.3 27.4 0.00 1.60 1.60 89 1012.1
20260506165148 21 220 11.3 27.4 0.00 1.60 1.60 89 1012.2
20260506165119 21 165 9.7 27.4 0.00 1.60 1.60 89 1012.2
20260506164811 21 221 9.7 27.4 0.00 1.60 1.60 89 1012.3
20260506164722 21 184 12.9 27.4 0.00 1.60 1.60 89 1012.3
20260506164610 21 180 11.3 27.4 0.00 1.60 1.60 89 1012.2
20260506164518 21 206 11.3 24.1 0.00 1.60 1.60 89 1012.1
20260506164445 21 187 14.5 24.1 0.00 1.60 1.60 88 1012.1
20260506164312 21 194 14.5 24.1 0.00 1.60 1.60 88 1011.9
20260506164219 21 234 12.9 24.1 0.00 1.60 1.60 89 1011.9
20260506164129 21 202 9.7 24.1 0.00 1.60 1.60 88 1011.9
20260506164018 21 212 11.3 27.4 0.00 1.60 1.60 88 1011.9
20260506163925 21 215 11.3 27.4 0.00 1.60 1.60 88 1011.9
20260506163812 21 207 9.7 27.4 0.00 1.60 1.60 88 1011.9
20260506163720 21 188 11.3 27.4 0.00 1.60 1.60 88 1011.9
20260506163632 21 174 11.3 27.4 0.00 1.60 1.60 88 1011.9
20260506163602 21 171 14.5 27.4 0.00 1.60 1.60 88 1011.9
20260506163315 21 211 12.9 27.4 0.00 1.60 1.60 89 1011.9
20260506163224 21 183 11.3 27.4 0.00 1.60 1.60 89 1011.9
20260506163114 21 219 9.7 22.5 0.00 1.60 1.60 89 1011.8
20260506163023 21 238 9.7 22.5 0.00 1.60 1.60 88 1011.8
20260506162928 21 200 9.7 22.5 0.00 1.60 1.60 89 1011.8
20260506162815 21 197 14.5 25.7 0.00 1.60 1.60 88 1011.9
20260506162722 21 211 14.5 25.7 0.00 1.60 1.60 88 1011.9
20260506162630 21 192 14.5 25.7 0.00 1.60 1.60 89 1011.8
20260506162521 21 178 12.9 25.7 0.00 1.60 1.60 89 1011.7
20260506162430 21 205 11.3 25.7 0.00 1.60 1.60 89 1011.7
20260506162316 21 180 11.3 25.7 0.00 1.60 1.60 89 1011.6
20260506162244 21 174 12.9 25.7 0.00 1.60 1.60 89 1011.6
20260506162110 21 190 12.9 24.1 0.00 1.60 1.60 89 1011.6
20260506162044 21 196 14.5 24.1 0.00 1.60 1.60 89 1011.6
20260506161818 21 240 14.5 20.9 0.00 1.60 1.60 89 1011.7
20260506161726 21 212 14.5 22.5 0.00 1.60 1.60 89 1011.7
20260506161612 21 236 12.9 22.5 0.00 1.60 1.60 89 1011.7
20260506161521 21 201 12.9 24.1 0.00 1.60 1.60 89 1011.7
20260506161413 21 178 12.9 24.1 0.00 1.60 1.60 89 1011.6
20260506161319 21 187 12.9 25.7 0.00 1.60 1.60 89 1011.6
20260506161227 21 180 12.9 25.7 0.00 1.60 1.60 89 1011.6
20260506161135 21 231 9.7 25.7 0.00 1.60 1.60 89 1011.6
20260506161021 21 218 11.3 25.7 0.00 1.60 1.60 90 1011.6
20260506160928 21 194 11.3 25.7 0.00 1.60 1.60 90 1011.7
20260506160820 21 182 14.5 25.7 0.00 1.60 1.60 89 1011.8
20260506160728 21 198 16.1 25.7 0.00 1.60 1.60 89 1011.8
20260506160615 21 211 11.3 24.1 0.00 1.60 1.60 90 1011.8
20260506160545 21 172 9.7 24.1 0.00 1.60 1.60 90 1011.8
20260506160323 21 180 8.0 17.7 0.00 1.60 1.60 90 1011.8
20260506160230 21 181 9.7 27.4 0.00 1.60 1.60 90 1011.7
20260506160117 21 293 9.7 27.4 0.00 1.60 1.60 90 1011.6
20260506160025 21 217 11.3 27.4 0.00 1.60 1.60 90 1011.6
20260506155913 21 207 12.9 27.4 0.00 1.60 1.60 90 1011.6
20260506155841 21 184 9.7 27.4 0.00 1.60 1.60 91 1011.7
20260506155711 21 262 8.0 27.4 0.00 1.60 1.60 91 1011.7
20260506155617 21 207 8.0 27.4 0.00 1.60 1.60 90 1011.7
20260506155525 21 182 12.9 27.4 0.00 1.60 1.60 90 1011.7
20260506155412 21 184 14.5 27.4 0.00 1.60 1.60 90 1011.7
20260506155340 21 193 17.7 27.4 0.00 1.60 1.60 90 1011.8
20260506155227 21 163 16.1 27.4 0.00 1.60 1.60 90 1011.8
20260506155118 21 159 14.5 20.9 0.00 1.60 1.60 91 1011.9
20260506155049 21 175 12.9 19.3 0.00 1.60 1.60 91 1011.9
20260506154822 21 227 11.3 20.9 0.00 1.60 1.60 91 1011.7
20260506154730 21 210 11.3 19.3 0.00 1.60 1.60 91 1011.7
20260506154617 21 176 9.7 19.3 0.00 1.60 1.60 91 1011.7
20260506154529 21 215 9.7 19.3 0.00 1.60 1.60 91 1011.7
20260506154416 21 190 9.7 24.1 0.00 1.60 1.60 91 1011.7
20260506154321 21 173 11.3 24.1 0.00 1.60 1.60 92 1011.7
20260506154250 21 207 12.9 24.1 0.00 1.60 1.60 92 1011.7
20260506154115 21 176 11.3 24.1 0.00 1.60 1.60 92 1011.6
20260506154023 21 191 12.9 24.1 0.00 1.60 1.60 92 1011.6
20260506153915 20 176 12.9 24.1 0.00 1.60 1.60 92 1011.6
20260506153823 20 201 11.3 24.1 0.00 1.60 1.60 92 1011.6
20260506153711 20 219 12.9 24.1 0.00 1.60 1.60 92 1011.5
20260506153619 20 189 14.5 22.5 0.00 1.60 1.60 92 1011.6
20260506153554 20 202 16.1 22.5 0.00 1.60 1.60 92 1011.6
20260506153327 20 229 16.1 22.5 0.00 1.60 1.60 92 1011.7
20260506153213 20 214 12.9 24.1 0.00 1.60 1.60 92 1011.7
20260506153121 20 195 12.9 22.5 0.00 1.60 1.60 92 1011.7
20260506153028 20 231 12.9 20.9 0.00 1.60 1.60 92 1011.7
20260506152915 20 225 9.7 17.7 0.00 1.60 1.60 93 1011.7
20260506152847 20 194 9.7 17.7 0.00 1.60 1.60 93 1011.7
20260506152713 20 229 9.7 17.7 0.00 1.60 1.60 93 1011.7
20260506152621 20 178 11.3 17.7 0.00 1.60 1.60 93 1011.7
20260506152528 20 195 11.3 27.4 0.00 1.60 1.60 93 1011.7
20260506152415 20 194 12.9 27.4 0.00 1.60 1.60 93 1011.7
20260506152323 20 187 14.5 27.4 0.00 1.60 1.60 93 1011.7
20260506152214 20 200 11.3 27.4 0.00 1.60 1.60 94 1011.6
20260506152122 20 192 11.3 27.4 0.00 1.60 1.60 94 1011.6
20260506152052 20 144 12.9 27.4 0.00 1.60 1.60 94 1011.6
20260506151826 20 165 16.1 27.4 0.00 1.60 1.60 93 1011.6
20260506151718 20 196 17.7 29.0 0.00 1.60 1.60 93 1011.6
20260506151646 20 178 12.9 27.4 0.00 1.60 1.60 94 1011.6
20260506151512 20 192 14.5 27.4 0.00 1.60 1.60 94 1011.4
20260506151418 20 204 16.1 27.4 0.00 1.60 1.60 93 1011.4
20260506151326 20 223 14.5 25.7 0.00 1.60 1.60 94 1011.4
20260506151213 20 257 11.3 25.7 0.00 1.60 1.60 94 1011.3
20260506151140 20 159 11.3 25.7 0.00 1.60 1.60 94 1011.3
20260506151032 20 217 16.1 25.7 0.00 1.60 1.60 94 1011.3
20260506150920 20 171 16.1 25.7 0.00 1.60 1.60 95 1011.3
20260506150827 20 185 14.5 22.5 0.00 1.60 1.60 95 1011.3
20260506150734 20 157 11.3 22.5 0.00 1.60 1.60 95 1011.1
20260506150621 20 176 9.7 22.5 0.00 1.60 1.60 95 1011.1
20260506150555 20 200 11.3 22.5 0.00 1.60 1.60 95 1011.2
20260506150329 20 143 12.9 22.5 0.00 1.60 1.60 95 1011.2
20260506150216 20 184 12.9 27.4 0.00 1.60 1.60 95 1011.3
20260506150123 20 153 12.9 27.4 0.00 1.60 1.60 95 1011.3
20260506150010 20 134 12.9 27.4 0.00 1.60 1.60 95 1011.3
20260506145922 20 207 12.9 27.4 0.00 1.60 1.60 95 1011.3
20260506145850 20 177 11.3 27.4 0.00 1.60 1.60 95 1011.3
20260506145718 19 175 9.7 27.4 0.00 1.60 1.60 95 1011.6
20260506145625 19 161 11.3 27.4 0.00 1.60 1.60 95 1011.6
20260506145513 19 196 14.5 27.4 0.00 1.60 1.60 95 1011.5
20260506145421 19 228 12.9 25.7 0.00 1.60 1.60 95 1011.5
20260506145312 19 189 9.7 16.1 0.00 1.60 1.60 95 1011.6
20260506145221 19 173 8.0 17.7 0.00 1.60 1.60 95 1011.6
20260506145148 19 190 6.4 17.7 0.00 1.60 1.60 95 1011.4
20260506145059 19 167 8.0 17.7 0.00 1.60 1.60 95 1011.4
20260506144813 19 144 11.3 17.7 0.00 1.60 1.60 94 1011.4
20260506144744 19 225 11.3 17.7 0.00 1.60 1.60 95 1011.4
20260506144629 19 142 11.3 17.7 0.00 1.60 1.60 95 1011.2
20260506144536 19 161 11.3 16.1 0.00 1.60 1.60 95 1011.3
20260506144422 19 151 11.3 16.1 0.00 1.60 1.60 95 1011.3
20260506144330 19 143 9.7 16.1 0.00 1.60 1.60 95 1011.4
20260506144217 19 166 9.7 16.1 0.00 1.60 1.60 95 1011.7
20260506144110 19 146 9.7 20.9 0.00 1.60 1.60 95 1011.8
20260506144019 19 185 9.7 20.9 0.00 1.60 1.60 95 1011.7
20260506143926 19 149 8.0 20.9 0.00 1.60 1.60 95 1011.7
20260506143814 19 138 8.0 20.9 0.03 1.60 1.60 95 1011.7
20260506143722 19 196 9.7 20.9 0.03 1.60 1.60 95 1011.7
20260506143629 19 186 9.7 20.9 0.03 1.60 1.60 95 1011.7
20260506143545 19 182 9.7 20.9 0.05 1.60 1.60 96 1011.7
20260506143318 19 106 12.9 22.5 0.08 1.60 1.60 96 1011.7
20260506143225 19 178 12.9 22.5 0.08 1.60 1.60 96 1011.7
20260506143112 19 182 8.0 19.3 0.13 1.60 1.60 96 1011.6
20260506143025 19 103 9.7 19.3 0.13 1.60 1.60 95 1011.6
20260506142933 18 198 11.3 19.3 0.18 1.60 1.60 95 1011.6
20260506142819 18 175 11.3 19.3 0.18 1.60 1.60 95 1011.7
20260506142727 18 178 9.7 17.7 0.18 1.60 1.60 95 1011.7
20260506142614 18 201 8.0 16.1 0.25 1.60 1.60 95 1011.7
20260506142542 18 99 8.0 16.1 0.25 1.60 1.60 95 1011.7
20260506142413 18 178 8.0 17.7 0.30 1.60 1.60 95 1011.8
20260506142339 18 135 9.7 17.7 0.33 1.60 1.60 95 1011.8
20260506142226 18 142 9.7 17.7 0.33 1.60 1.60 95 1011.8
20260506142134 18 157 11.3 17.7 0.36 1.60 1.60 95 1011.8
20260506142104 18 167 11.3 17.7 0.38 1.60 1.60 95 1011.9
20260506141821 18 179 11.3 17.7 0.66 1.60 1.60 95 1012.0
20260506141728 18 167 11.3 17.7 0.74 1.60 1.60 95 1012.0
20260506141615 18 170 11.3 19.3 0.74 1.60 1.60 95 1012.1
20260506141523 18 184 8.0 19.3 0.74 1.60 1.60 95 1012.1
20260506141411 18 212 9.7 19.3 0.74 1.60 1.60 95 1012.0
20260506141317 18 156 11.3 19.3 0.76 1.60 1.60 95 1011.9
20260506141229 18 204 11.3 19.3 0.76 1.60 1.60 95 1011.9
20260506141136 18 217 11.3 19.3 0.79 1.60 1.60 95 1011.8
20260506141023 18 165 11.3 19.3 0.79 1.60 1.60 94 1011.8
20260506140910 18 199 11.3 19.3 0.91 1.60 1.60 94 1011.7
20260506140819 18 182 11.3 19.3 0.91 1.60 1.60 94 1011.7
20260506140710 18 176 9.7 17.7 1.32 1.60 1.60 94 1011.6
20260506140617 18 186 9.7 19.3 1.45 1.60 1.60 94 1011.6
20260506140547 18 157 9.7 19.3 1.45 1.60 1.60 94 1011.6
20260506140321 18 182 9.7 17.7 1.45 1.60 1.60 94 1011.8
20260506140229 18 170 9.7 17.7 1.47 1.60 1.60 94 1011.8
20260506140120 18 191 9.7 17.7 1.47 1.60 1.60 94 1011.8
20260506140027 18 166 11.3 17.7 1.47 1.60 1.60 94 1011.8
20260506135914 18 190 9.7 17.7 1.50 1.60 1.60 94 1011.9
20260506135822 18 186 8.0 17.7 1.50 1.60 1.60 95 1011.9
20260506135711 18 189 6.4 12.9 1.50 1.60 1.60 94 1011.8
20260506135622 18 217 4.8 9.7 1.50 1.60 1.60 94 1011.8
20260506135549 18 154 4.8 9.7 1.52 1.60 1.60 94 1011.7
20260506135417 18 218 4.8 9.7 1.52 1.60 1.60 94 1011.7
20260506135325 18 167 4.8 9.7 1.52 1.60 1.60 94 1011.7
20260506135213 18 198 4.8 11.3 1.52 1.60 1.60 94 1011.6
20260506135140 18 110 4.8 12.9 1.52 1.60 1.60 94 1011.6
20260506135053 18 186 4.8 12.9 1.55 1.60 1.60 94 1011.6
20260506134828 18 140 6.4 17.7 1.57 1.60 1.60 94 1011.3
20260506134716 18 107 6.4 17.7 1.57 1.60 1.60 94 1011.2
20260506134623 18 118 4.8 17.7 1.57 1.60 1.60 93 1011.2
20260506134510 18 158 6.4 17.7 1.60 1.60 1.60 93 1011.7
20260506134441 18 233 9.7 17.7 1.60 1.60 1.60 93 1012.0
20260506134328 18 211 11.3 17.7 1.60 1.60 1.60 93 1012.0
20260506134215 18 196 11.3 17.7 1.60 1.60 1.60 94 1012.1
20260506134123 18 216 11.3 17.7 1.60 1.60 1.60 94 1012.1
20260506134029 18 183 11.3 17.7 1.60 1.60 1.60 94 1012.1
20260506133917 18 202 9.7 14.5 1.57 1.57 1.57 94 1011.7
20260506133826 18 259 9.7 14.5 1.57 1.57 1.57 94 1011.7
20260506133715 18 155 8.0 16.1 1.57 1.57 1.57 94 1010.6
20260506133622 18 116 6.4 16.1 1.55 1.55 1.55 94 1010.6
20260506133553 19 134 4.8 16.1 1.55 1.55 1.55 94 1010.5
20260506133310 19 11 3.2 16.1 1.52 1.52 1.52 94 1011.8
20260506133238 19 85 1.6 16.1 1.50 1.50 1.50 94 1012.3
20260506133126 19 86 4.8 16.1 1.47 1.47 1.47 93 1012.3
20260506133013 19 188 9.7 16.1 1.45 1.45 1.45 94 1012.8
20260506132920 19 196 9.7 16.1 1.45 1.45 1.45 94 1012.8
20260506132829 19 171 9.7 14.5 1.42 1.42 1.42 94 1013.1
20260506132739 19 205 8.0 14.5 1.40 1.40 1.40 94 1013.3
20260506132626 19 213 6.4 14.5 1.35 1.35 1.37 93 1013.3
20260506132513 19 200 3.2 12.9 1.32 1.32 1.32 93 1013.2
20260506132421 19 227 3.2 9.7 1.30 1.30 1.30 93 1013.2
20260506132328 19 238 3.2 9.7 1.27 1.27 1.27 93 1013.1
20260506132216 19 331 3.2 9.7 1.24 1.24 1.24 93 1012.5
20260506132127 19 346 4.8 9.7 1.22 1.22 1.22 93 1012.5
20260506132058 19 9 4.8 14.5 0.99 0.99 0.99 93 1012.6
20260506131810 19 293 3.2 20.9 0.86 0.86 0.86 93 1013.8
20260506131737 19 237 3.2 20.9 0.86 0.86 0.86 92 1013.5
20260506131625 19 225 3.2 27.4 0.86 0.86 0.86 92 1013.5
20260506131536 19 232 3.2 27.4 0.86 0.86 0.86 92 1012.0
20260506131421 19 55 6.4 27.4 0.86 0.86 0.86 92 1012.0
20260506131328 19 32 6.4 27.4 0.84 0.84 0.84 91 1011.9
20260506131216 19 9 11.3 27.4 0.84 0.84 0.84 91 1012.7
20260506131124 19 302 12.9 27.4 0.81 0.81 0.81 91 1012.7
20260506131016 19 323 16.1 27.4 0.79 0.79 0.79 91 1013.0
20260506130925 19 344 16.1 27.4 0.69 0.69 0.69 91 1013.0
20260506130811 19 306 14.5 27.4 0.46 0.46 0.46 90 1013.4
20260506130719 19 317 9.7 25.7 0.28 0.28 0.28 90 1013.3
20260506130627 19 311 8.0 22.5 0.15 0.15 0.15 90 1013.3
20260506130601 20 310 8.0 22.5 0.15 0.15 0.15 90 1013.2
20260506130335 20 198 9.7 22.5 0.13 0.13 0.13 90 1012.0
20260506130222 20 192 12.9 22.5 0.13 0.13 0.13 89 1012.0
20260506130129 20 186 12.9 24.1 0.13 0.13 0.13 89 1011.8
20260506130017 20 190 12.9 24.1 0.10 0.10 0.10 89 1011.7
20260506125945 20 186 11.3 20.9 0.10 0.10 0.10 89 1011.7
20260506125815 20 214 12.9 20.9 0.10 0.10 0.10 89 1011.7
20260506125722 20 209 11.3 22.5 0.10 0.10 0.10 88 1011.7
20260506125630 20 211 9.7 22.5 0.10 0.10 0.10 88 1011.5
20260506125516 20 192 9.7 20.9 0.08 0.08 0.08 88 1011.6
20260506125424 20 223 9.7 19.3 0.08 0.08 0.08 88 1011.6
20260506125315 20 198 9.7 19.3 0.08 0.08 0.08 88 1011.7
20260506125222 20 227 9.7 24.1 0.08 0.08 0.08 87 1011.7
20260506125150 20 205 9.7 24.1 0.05 0.05 0.05 87 1011.6
20260506125120 20 211 9.7 24.1 0.03 0.03 0.03 87 1011.5
20260506124812 20 203 11.3 24.1 0.03 0.03 0.03 86 1011.5
20260506124724 20 196 12.9 24.1 0.03 0.03 0.03 86 1011.5
20260506124612 20 234 14.5 24.1 0.00 0.00 0.00 86 1011.7
20260506124520 20 203 14.5 24.1 0.00 0.00 0.00 86 1011.7
20260506124428 20 189 12.9 24.1 0.00 0.00 0.00 86 1011.7
20260506124315 20 200 11.3 25.7 0.00 0.00 0.00 85 1011.6
20260506124223 20 188 11.3 25.7 0.00 0.00 0.00 85 1011.6
20260506124136 20 153 11.3 25.7 0.00 0.00 0.00 85 1011.5
20260506124043 20 234 11.3 25.7 0.00 0.00 0.00 85 1011.5
20260506123929 20 247 9.7 25.7 0.00 0.00 0.00 85 1011.6
20260506123817 20 173 9.7 25.7 0.00 0.00 0.00 84 1011.4
20260506123724 20 212 11.3 25.7 0.00 0.00 0.00 84 1011.4
20260506123632 20 198 14.5 25.7 0.00 0.00 0.00 84 1011.4
20260506123608 20 142 16.1 25.7 0.00 0.00 0.00 84 1011.4
20260506123321 20 199 14.5 25.7 0.00 0.00 0.00 84 1011.4
20260506123229 20 184 14.5 25.7 0.00 0.00 0.00 84 1011.5
20260506123117 20 189 17.7 25.7 0.00 0.00 0.00 84 1011.3
20260506123025 20 215 16.1 22.5 0.00 0.00 0.00 84 1011.3
20260506122936 20 199 12.9 22.5 0.00 0.00 0.00 84 1011.4
20260506122823 20 279 11.3 22.5 0.00 0.00 0.00 84 1011.4
20260506122730 20 205 9.7 22.5 0.00 0.00 0.00 84 1011.4
20260506122617 20 193 12.9 22.5 0.00 0.00 0.00 83 1011.4
20260506122526 20 184 14.5 22.5 0.00 0.00 0.00 84 1011.4
20260506122433 20 200 14.5 22.5 0.00 0.00 0.00 83 1011.2
20260506122323 20 180 12.9 22.5 0.00 0.00 0.00 84 1011.2
20260506122250 20 180 12.9 22.5 0.00 0.00 0.00 83 1011.2
20260506122117 20 205 11.3 22.5 0.00 0.00 0.00 84 1011.1
20260506122047 20 208 12.9 22.5 0.00 0.00 0.00 84 1011.1
20260506121822 20 208 14.5 22.5 0.00 0.00 0.00 83 1011.1
20260506121714 20 211 14.5 22.5 0.00 0.00 0.00 83 1011.0
20260506121622 20 196 17.7 22.5 0.00 0.00 0.00 83 1011.0
20260506121529 20 243 17.7 25.7 0.00 0.00 0.00 83 1010.9
20260506121418 20 206 14.5 22.5 0.00 0.00 0.00 83 1010.7
20260506121326 20 215 12.9 22.5 0.00 0.00 0.00 83 1010.7
20260506121217 20 215 14.5 22.5 0.00 0.00 0.00 83 1010.7
20260506121125 20 217 14.5 19.3 0.00 0.00 0.00 83 1010.7
20260506121014 20 223 11.3 19.3 0.00 0.00 0.00 83 1010.7
20260506120920 20 170 9.7 20.9 0.00 0.00 0.00 83 1010.7
20260506120828 20 189 11.3 20.9 0.00 0.00 0.00 83 1010.6
20260506120717 20 149 11.3 20.9 0.00 0.00 0.00 83 1010.6
20260506120649 20 180 9.7 20.9 0.00 0.00 0.00 83 1010.6
20260506120558 20 173 9.7 20.9 0.00 0.00 0.00 83 1010.5
20260506120313 20 195 11.3 25.7 0.00 0.00 0.00 83 1010.5
20260506120221 20 190 14.5 25.7 0.00 0.00 0.00 83 1010.5
20260506120112 20 163 12.9 25.7 0.00 0.00 0.00 83 1010.6
20260506120040 20 206 11.3 25.7 0.00 0.00 0.00 83 1010.6
20260506115947 20 178 11.3 25.7 0.00 0.00 0.00 83 1010.5
20260506115814 20 157 12.9 25.7 0.00 0.00 0.00 83 1010.6
20260506115721 20 230 12.9 25.7 0.00 0.00 0.00 83 1010.6
20260506115628 20 223 16.1 25.7 0.00 0.00 0.00 83 1010.5
20260506115535 20 192 17.7 30.6 0.00 0.00 0.00 83 1010.5
20260506115427 20 183 14.5 30.6 0.00 0.00 0.00 83 1010.5
20260506115315 20 188 11.3 30.6 0.00 0.00 0.00 83 1010.6
20260506115222 20 178 11.3 30.6 0.00 0.00 0.00 83 1010.6
20260506115149 20 196 9.7 30.6 0.00 0.00 0.00 83 1010.5
20260506115100 20 165 9.7 30.6 0.00 0.00 0.00 83 1010.5
20260506114816 20 165 9.7 30.6 0.00 0.00 0.00 83 1010.5
20260506114723 20 200 14.5 30.6 0.00 0.00 0.00 83 1010.5
20260506114611 20 199 17.7 30.6 0.00 0.00 0.00 83 1010.5
20260506114519 20 221 16.1 25.7 0.00 0.00 0.00 83 1010.5
20260506114446 20 206 12.9 25.7 0.00 0.00 0.00 83 1010.5
20260506114312 20 216 16.1 25.7 0.00 0.00 0.00 83 1010.4
20260506114224 20 196 17.7 25.7 0.00 0.00 0.00 83 1010.4
20260506114111 20 223 14.5 25.7 0.00 0.00 0.00 82 1010.4
20260506114018 20 209 9.7 25.7 0.00 0.00 0.00 83 1010.3
20260506113926 20 219 11.3 25.7 0.00 0.00 0.00 83 1010.3
20260506113813 20 167 14.5 25.7 0.00 0.00 0.00 82 1010.2
20260506113724 20 186 12.9 25.7 0.00 0.00 0.00 82 1010.2
20260506113633 20 218 12.9 25.7 0.00 0.00 0.00 82 1010.2
20260506113602 20 183 11.3 22.5 0.00 0.00 0.00 82 1010.2
20260506113313 20 211 12.9 20.9 0.00 0.00 0.00 82 1010.1
20260506113240 20 184 12.9 20.9 0.00 0.00 0.00 82 1010.1
20260506113130 20 190 14.5 20.9 0.00 0.00 0.00 82 1010.1
20260506113018 20 202 11.3 20.9 0.00 0.00 0.00 82 1010.2
20260506112926 20 208 9.7 20.9 0.00 0.00 0.00 82 1010.2
20260506112815 20 205 9.7 20.9 0.00 0.00 0.00 82 1010.2
20260506112722 20 188 9.7 20.9 0.00 0.00 0.00 82 1010.2
20260506112613 20 186 11.3 20.9 0.00 0.00 0.00 82 1010.1
20260506112520 20 223 12.9 20.9 0.00 0.00 0.00 82 1010.1
20260506112428 20 188 16.1 27.4 0.00 0.00 0.00 82 1010.2
20260506112315 20 227 16.1 27.4 0.00 0.00 0.00 82 1010.0
20260506112224 20 186 11.3 27.4 0.00 0.00 0.00 82 1010.0
20260506112151 20 186 11.3 27.4 0.00 0.00 0.00 82 1010.0
20260506112125 20 194 9.7 27.4 0.00 0.00 0.00 82 1010.0
20260506111815 20 211 12.9 27.4 0.00 0.00 0.00 82 1009.8
20260506111743 20 167 12.9 27.4 0.00 0.00 0.00 82 1009.8
20260506111628 20 196 14.5 27.4 0.00 0.00 0.00 82 1009.8
20260506111514 20 196 11.3 25.7 0.00 0.00 0.00 82 1009.7
20260506111426 20 191 9.7 24.1 0.00 0.00 0.00 82 1009.7
20260506111333 20 226 9.7 24.1 0.00 0.00 0.00 82 1009.7
20260506111220 20 174 11.3 24.1 0.00 0.00 0.00 82 1009.7
20260506111127 20 177 12.9 24.1 0.00 0.00 0.00 82 1009.7
20260506111034 20 187 16.1 24.1 0.00 0.00 0.00 82 1009.7
20260506110941 20 197 17.7 30.6 0.00 0.00 0.00 82 1009.7
20260506110827 20 163 16.1 30.6 0.00 0.00 0.00 82 1009.8
20260506110739 20 194 14.5 30.6 0.00 0.00 0.00 81 1009.8
20260506110625 20 211 11.3 30.6 0.00 0.00 0.00 81 1009.8
20260506110555 20 200 11.3 30.6 0.00 0.00 0.00 81 1009.8
20260506110349 20 228 14.5 30.6 0.00 0.00 0.00 81 1009.8
20260506110214 20 223 16.1 30.6 0.00 0.00 0.00 81 1009.7
20260506110125 20 169 17.7 30.6 0.00 0.00 0.00 81 1009.7
20260506110012 20 159 12.9 24.1 0.00 0.00 0.00 81 1009.6
20260506105920 20 184 12.9 20.9 0.00 0.00 0.00 81 1009.6
20260506105827 20 178 12.9 20.9 0.00 0.00 0.00 81 1009.6
20260506105715 20 184 11.3 22.5 0.00 0.00 0.00 81 1009.7
20260506105621 20 202 9.7 22.5 0.00 0.00 0.00 81 1009.7
20260506105512 20 205 11.3 22.5 0.00 0.00 0.00 81 1009.7
20260506105419 20 180 9.7 22.5 0.00 0.00 0.00 81 1009.7
20260506105327 20 198 8.0 20.9 0.00 0.00 0.00 81 1009.7
20260506105235 20 221 9.7 20.9 0.00 0.00 0.00 81 1009.8
20260506105122 20 228 9.7 20.9 0.00 0.00 0.00 81 1009.8
20260506105057 20 187 11.3 20.9 0.00 0.00 0.00 81 1009.7
20260506104831 20 196 11.3 20.9 0.00 0.00 0.00 81 1009.8
20260506104717 20 188 12.9 20.9 0.00 0.00 0.00 81 1009.8
20260506104625 20 188 14.5 20.9 0.00 0.00 0.00 81 1009.8
20260506104512 20 200 12.9 24.1 0.00 0.00 0.00 81 1009.7
20260506104424 20 200 11.3 24.1 0.00 0.00 0.00 81 1009.7
20260506104312 20 209 8.0 24.1 0.00 0.00 0.00 81 1009.8
20260506104220 20 144 6.4 24.1 0.00 0.00 0.00 81 1009.8
20260506104127 20 234 6.4 24.1 0.00 0.00 0.00 81 1009.7
20260506104015 20 188 11.3 24.1 0.00 0.00 0.00 81 1009.8
20260506103923 20 215 12.9 24.1 0.00 0.00 0.00 81 1009.8
20260506103815 20 198 14.5 24.1 0.00 0.00 0.00 81 1009.8
20260506103723 20 223 14.5 24.1 0.00 0.00 0.00 81 1009.8
20260506103652 20 231 12.9 24.1 0.00 0.00 0.00 81 1009.8
20260506103601 20 196 11.3 24.1 0.00 0.00 0.00 81 1009.7
20260506103319 20 190 11.3 24.1 0.00 0.00 0.00 81 1009.8
20260506103227 20 278 9.7 24.1 0.00 0.00 0.00 80 1009.8
20260506103115 20 188 6.4 24.1 0.00 0.00 0.00 80 1009.7
20260506103042 20 203 8.0 24.1 0.00 0.00 0.00 80 1009.7
20260506102929 20 201 9.7 24.1 0.00 0.00 0.00 80 1009.6
20260506102816 20 192 11.3 24.1 0.00 0.00 0.00 80 1009.6
20260506102727 20 197 11.3 24.1 0.00 0.00 0.00 80 1009.6
20260506102614 20 194 14.5 24.1 0.00 0.00 0.00 80 1009.7
20260506102523 20 189 11.3 24.1 0.00 0.00 0.00 80 1009.7
20260506102450 20 182 6.4 19.3 0.00 0.00 0.00 80 1009.6
20260506102315 20 171 8.0 19.3 0.00 0.00 0.00 80 1009.6
20260506102222 20 217 11.3 19.3 0.00 0.00 0.00 80 1009.6
20260506102114 20 217 9.7 20.9 0.00 0.00 0.00 80 1009.6
20260506102045 20 190 9.7 20.9 0.00 0.00 0.00 80 1009.6
20260506101818 20 205 12.9 20.9 0.00 0.00 0.00 80 1009.6
20260506101726 20 161 12.9 25.7 0.00 0.00 0.00 80 1009.6
20260506101618 21 188 9.7 25.7 0.00 0.00 0.00 80 1009.5
20260506101525 20 221 11.3 25.7 0.00 0.00 0.00 80 1009.5
20260506101411 20 182 16.1 25.7 0.00 0.00 0.00 80 1009.4
20260506101318 20 228 12.9 25.7 0.00 0.00 0.00 80 1009.4
20260506101225 20 166 11.3 30.6 0.00 0.00 0.00 80 1009.4
20260506101112 20 191 12.9 30.6 0.00 0.00 0.00 80 1009.2
20260506101025 21 183 14.5 30.6 0.00 0.00 0.00 80 1009.2
20260506100951 21 168 16.1 30.6 0.00 0.00 0.00 80 1009.3
20260506100838 21 221 14.5 30.6 0.00 0.00 0.00 80 1009.4
20260506100744 21 192 12.9 30.6 0.00 0.00 0.00 80 1009.4
20260506100628 21 182 16.1 30.6 0.00 0.00 0.00 80 1009.4
20260506100558 21 202 16.1 30.6 0.00 0.00 0.00 80 1009.3
20260506100314 21 201 14.5 29.0 0.00 0.00 0.00 80 1009.4
20260506100222 21 200 12.9 29.0 0.00 0.00 0.00 80 1009.4
20260506100130 21 210 12.9 29.0 0.00 0.00 0.00 80 1009.2
20260506100018 21 161 11.3 29.0 0.00 0.00 0.00 80 1009.3
20260506095924 21 206 8.0 29.0 0.00 0.00 0.00 80 1009.3
20260506095815 21 198 6.4 29.0 0.00 0.00 0.00 80 1009.2
20260506095722 21 209 9.7 29.0 0.00 0.00 0.00 79 1009.2
20260506095629 21 246 12.9 29.0 0.00 0.00 0.00 80 1009.2
20260506095516 21 213 12.9 29.0 0.00 0.00 0.00 79 1009.1
20260506095424 21 169 11.3 24.1 0.00 0.00 0.00 79 1009.1
20260506095329 21 153 9.7 24.1 0.00 0.00 0.00 79 1009.0
20260506095220 21 190 8.0 24.1 0.00 0.00 0.00 79 1008.9
20260506095127 21 188 9.7 24.1 0.00 0.00 0.00 79 1008.9
20260506095057 21 202 9.7 24.1 0.00 0.00 0.00 79 1008.9
20260506094811 21 196 11.3 22.5 0.00 0.00 0.00 79 1008.8
20260506094722 21 182 8.0 17.7 0.00 0.00 0.00 79 1008.8
20260506094630 21 174 4.8 17.7 0.00 0.00 0.00 79 1008.8
20260506094538 21 174 8.0 17.7 0.00 0.00 0.00 79 1008.9
20260506094425 21 210 9.7 17.7 0.00 0.00 0.00 79 1008.9
20260506094314 21 181 9.7 17.7 0.00 0.00 0.00 79 1009.0
20260506094222 21 200 9.7 17.7 0.00 0.00 0.00 79 1009.0
20260506094113 21 214 9.7 25.7 0.00 0.00 0.00 79 1008.9
20260506094022 21 187 11.3 25.7 0.00 0.00 0.00 79 1008.9
20260506093930 21 209 14.5 25.7 0.00 0.00 0.00 79 1008.8
20260506093818 21 175 14.5 25.7 0.00 0.00 0.00 79 1008.9
20260506093725 21 190 14.5 25.7 0.00 0.00 0.00 79 1008.9
20260506093633 21 177 12.9 25.7 0.00 0.00 0.00 79 1008.9
20260506093547 21 196 16.1 25.7 0.00 0.00 0.00 79 1008.9
20260506093320 21 192 14.5 25.7 0.00 0.00 0.00 78 1008.8
20260506093228 21 183 11.3 29.0 0.00 0.00 0.00 78 1008.8
20260506093115 21 184 12.9 29.0 0.00 0.00 0.00 78 1009.0
20260506093026 21 200 16.1 29.0 0.00 0.00 0.00 78 1009.0
20260506092934 21 194 14.5 29.0 0.00 0.00 0.00 78 1008.9
20260506092821 21 208 11.3 29.0 0.00 0.00 0.00 78 1008.9
20260506092729 21 182 14.5 29.0 0.00 0.00 0.00 78 1009.0
20260506092617 21 179 19.3 29.0 0.00 0.00 0.00 78 1008.9
20260506092543 21 174 16.1 29.0 0.00 0.00 0.00 78 1008.9
20260506092414 21 205 14.5 24.1 0.00 0.00 0.00 78 1009.0
20260506092321 21 197 16.1 24.1 0.00 0.00 0.00 78 1009.0
20260506092228 21 206 16.1 27.4 0.00 0.00 0.00 78 1008.9
20260506092116 21 199 17.7 30.6 0.00 0.00 0.00 78 1009.1
20260506092046 21 182 16.1 30.6 0.00 0.00 0.00 78 1009.1
20260506091824 21 202 17.7 35.4 0.00 0.00 0.00 78 1009.0
20260506091730 21 211 17.7 35.4 0.00 0.00 0.00 78 1009.0
20260506091615 21 227 14.5 35.4 0.00 0.00 0.00 78 1009.0
20260506091522 21 195 14.5 35.4 0.00 0.00 0.00 78 1009.0
20260506091429 21 223 17.7 35.4 0.00 0.00 0.00 78 1008.9
20260506091317 21 198 19.3 35.4 0.00 0.00 0.00 78 1009.0
20260506091227 21 188 16.1 35.4 0.00 0.00 0.00 78 1009.0
20260506091136 21 246 16.1 35.4 0.00 0.00 0.00 78 1009.1
20260506091023 21 213 19.3 35.4 0.00 0.00 0.00 78 1009.1
20260506090929 21 187 17.7 37.0 0.00 0.00 0.00 78 1009.0
20260506090817 21 213 17.7 29.0 0.00 0.00 0.00 78 1009.1
20260506090725 21 223 16.1 29.0 0.00 0.00 0.00 77 1009.1
20260506090618 21 194 12.9 35.4 0.00 0.00 0.00 77 1009.0
20260506090549 21 200 11.3 35.4 0.00 0.00 0.00 77 1009.0
20260506090321 21 179 14.5 35.4 0.00 0.00 0.00 77 1009.0
20260506090250 21 215 16.1 35.4 0.00 0.00 0.00 77 1009.0
20260506090118 21 279 12.9 35.4 0.00 0.00 0.00 77 1009.0
20260506090029 21 223 12.9 35.4 0.00 0.00 0.00 77 1009.0
20260506085914 21 177 16.1 35.4 0.00 0.00 0.00 77 1008.9
20260506085822 21 205 16.1 35.4 0.00 0.00 0.00 78 1008.9
20260506085729 21 186 17.7 35.4 0.00 0.00 0.00 77 1008.9
20260506085614 21 192 19.3 35.4 0.00 0.00 0.00 77 1009.0
20260506085543 21 204 17.7 35.4 0.00 0.00 0.00 77 1009.0
20260506085412 21 198 16.1 29.0 0.00 0.00 0.00 77 1009.0
20260506085320 21 176 14.5 29.0 0.00 0.00 0.00 77 1009.0
20260506085227 21 190 12.9 29.0 0.00 0.00 0.00 77 1009.1
20260506085114 21 217 12.9 29.0 0.00 0.00 0.00 77 1009.0
20260506085044 21 186 12.9 29.0 0.00 0.00 0.00 77 1009.0
20260506084822 21 176 14.5 29.0 0.00 0.00 0.00 77 1009.1
20260506084729 21 178 16.1 29.0 0.00 0.00 0.00 77 1008.9
20260506084637 21 199 14.5 33.8 0.00 0.00 0.00 77 1008.9
20260506084543 21 259 11.3 24.1 0.00 0.00 0.00 77 1008.9
20260506084410 21 162 9.7 24.1 0.00 0.00 0.00 77 1008.9
20260506084317 21 238 11.3 24.1 0.00 0.00 0.00 77 1008.8
20260506084245 21 175 11.3 24.1 0.00 0.00 0.00 77 1008.8
20260506084117 21 192 12.9 24.1 0.00 0.00 0.00 77 1008.8
20260506084045 21 208 14.5 30.6 0.00 0.00 0.00 77 1008.8
20260506083911 21 209 12.9 30.6 0.00 0.00 0.00 77 1008.9
20260506083838 21 189 11.3 30.6 0.00 0.00 0.00 76 1008.9
20260506083724 21 177 12.9 30.6 0.00 0.00 0.00 76 1008.9
20260506083611 21 180 11.3 30.6 0.00 0.00 0.00 76 1008.9
20260506083544 21 168 12.9 30.6 0.00 0.00 0.00 76 1008.9
20260506083337 21 198 16.1 30.6 0.00 0.00 0.00 76 1008.9
20260506083242 21 190 19.3 30.6 0.00 0.00 0.00 76 1008.9
20260506083128 21 202 19.3 30.6 0.00 0.00 0.00 76 1008.9
20260506083015 21 217 14.5 24.1 0.00 0.00 0.00 76 1009.0
20260506082927 21 166 12.9 24.1 0.00 0.00 0.00 76 1009.0
20260506082814 21 211 12.9 25.7 0.00 0.00 0.00 76 1008.9
20260506082721 21 190 12.9 25.7 0.00 0.00 0.00 76 1008.9
20260506082629 21 195 11.3 25.7 0.00 0.00 0.00 76 1009.0
20260506082516 21 210 12.9 29.0 0.00 0.00 0.00 75 1008.9
20260506082422 21 229 11.3 30.6 0.00 0.00 0.00 75 1008.9
20260506082313 21 182 11.3 30.6 0.00 0.00 0.00 75 1008.9